GFSMA_700_spd_000.txt.gz
Wind_Speed
23 24 23 23 21 20 21 23 25 26 28 28 28 26 26 26 25 25 31 32 30 29 28 27 27 28 28 29 28 25 23 24 25 35 31 35 28 25 24 26 26 26 25
22 21 21 21 20 20 24 27 28 28 28 27 27 28 27 26 28 32 31 34 32 32 31 32 31 30 29 27 29 29 27 25 27 31 35 27 32 30 27 25 28 28 28
22 24 24 26 27 27 29 31 31 31 31 32 34 36 37 35 31 28 30 32 35 36 34 32 33 33 32 31 28 28 28 30 28 31 36 37 35 37 37 34 30 30 28
31 30 29 29 28 28 29 31 30 30 31 31 31 33 36 38 39 41 42 38 39 38 37 38 36 34 33 33 31 29 30 30 32 32 33 38 36 34 43 44 36 32 29
34 35 34 35 36 34 36 35 33 34 33 33 34 34 33 35 38 41 44 43 45 48 48 42 40 38 36 34 33 31 30 30 32 35 36 36 38 35 37 45 47 43 36
38 37 39 41 40 41 42 37 35 37 35 36 36 37 35 34 34 35 38 39 43 44 44 49 46 44 39 36 36 35 33 31 32 34 37 38 39 37 38 43 45 49 43
42 38 40 43 39 44 43 42 41 38 39 37 38 39 39 37 37 36 37 38 42 43 42 40 46 49 45 43 36 35 37 35 32 32 36 39 41 41 40 41 48 48 32
47 49 47 48 47 40 42 40 39 40 41 40 41 44 47 46 43 40 35 34 39 42 47 50 50 45 46 45 41 30 30 33 33 31 33 36 39 41 42 42 43 44 44
52 37 42 42 42 40 38 40 41 43 47 45 46 47 47 49 51 49 47 44 40 36 39 46 44 45 43 47 46 42 31 27 30 34 33 33 36 39 40 44 46 46 47
39 40 38 38 39 43 42 44 46 49 50 52 53 52 51 53 57 59 54 52 47 43 46 40 40 35 43 46 45 44 40 37 31 33 36 36 34 35 39 42 46 49 49
42 39 41 43 46 50 51 50 52 53 55 56 55 55 53 48 46 48 56 58 55 51 51 51 41 47 45 46 45 52 44 40 36 32 35 36 36 35 37 41 42 45 49
46 45 48 51 52 54 54 55 56 56 55 53 46 43 42 44 46 46 48 51 53 53 53 56 55 53 70 51 35 38 42 45 40 38 36 34 35 38 38 41 42 43 45
49 50 52 51 54 57 57 57 53 45 46 38 38 41 41 40 39 40 42 41 47 50 47 46 59 58 60 53 41 28 31 39 46 43 39 35 36 38 39 40 44 44 44
49 49 53 54 56 56 53 53 47 39 35 34 35 35 34 35 38 35 40 34 35 37 39 36 44 49 50 37 36 37 34 37 42 42 42 44 42 39 41 38 40 44 43
47 51 53 53 54 53 48 45 40 38 39 36 36 36 38 38 38 32 31 29 23 30 28 32 38 40 50 37 29 34 34 34 33 36 37 38 39 36 39 39 40 41 40
50 52 53 53 48 45 42 40 38 36 37 36 34 36 32 30 26 25 25 27 27 26 31 28 24 27 30 31 26 23 27 32 33 34 30 27 30 33 35 39 40 43 42
52 50 46 42 39 39 35 35 34 33 33 32 29 30 30 30 29 29 28 30 28 27 32 32 28 23 23 20 22 24 25 26 28 34 35 37 34 34 34 36 39 41 45
48 47 46 44 41 37 35 33 33 35 38 38 31 26 27 31 34 35 35 30 29 34 31 31 30 30 28 27 27 23 23 24 27 29 35 33 35 34 35 38 39 39 41
47 44 42 37 33 33 34 34 35 34 35 36 34 35 36 32 34 34 35 40 41 34 32 32 34 32 32 29 33 32 29 29 30 32 32 34 38 36 34 31 36 39 42
45 41 34 32 33 33 34 35 34 34 35 35 35 34 34 34 32 32 32 32 32 35 35 37 38 36 32 30 29 30 32 33 34 35 34 35 35 35 35 34 34 38 40
40 38 34 32 31 32 34 35 37 37 37 38 39 37 35 33 33 38 37 36 41 38 38 39 39 38 36 31 28 25 26 26 28 28 31 34 36 36 36 37 35 34 39
37 38 34 35 34 35 38 41 42 41 41 42 42 39 36 35 33 30 35 37 39 39 35 35 37 38 37 35 35 35 37 37 37 35 38 37 36 35 36 33 29 31 37
38 37 34 35 39 40 41 45 45 43 44 42 40 38 35 33 33 32 34 37 37 35 32 30 32 33 35 33 34 36 37 41 43 43 42 43 40 38 41 40 43 43 41
39 34 35 38 42 41 43 46 47 42 39 38 35 32 30 29 29 31 34 35 34 32 32 32 33 29 32 31 34 35 38 40 41 40 38 40 35 35 37 37 39 40 43
35 36 38 38 38 40 43 43 40 38 37 35 31 29 26 26 25 26 29 31 31 29 30 30 30 29 29 29 30 33 34 34 36 34 32 34 32 33 33 33 34 36 36
34 38 40 32 37 41 40 40 39 37 36 33 28 23 21 21 22 21 23 25 26 26 26 25 25 25 26 26 26 28 30 31 30 30 24 29 29 28 31 30 29 28 28

GFSMA_700_spd_006.txt.gz
Wind_Speed
21 26 28 24 29 31 29 28 30 29 26 26 27 25 24 21 21 20 20 19 19 16 13 14 16 19 21 22 24 25 25 25 25 23 24 26 27 28 30 29 31 28 28
24 31 32 31 33 33 31 33 35 35 33 33 29 29 25 24 24 25 25 25 24 21 21 17 15 18 21 23 25 27 28 28 27 27 26 26 29 34 35 32 35 32 29
29 38 37 38 37 36 40 42 44 41 39 35 34 32 30 29 24 24 28 28 29 29 27 24 22 18 16 19 23 26 28 30 30 30 30 29 29 31 36 36 36 39 33
41 38 37 35 39 39 48 49 44 43 38 40 37 34 32 32 30 32 29 29 31 31 31 29 26 23 19 16 17 20 25 29 30 31 31 31 32 31 36 35 40 39 35
31 30 32 37 42 47 40 37 36 38 37 38 38 37 35 34 33 34 35 36 34 34 32 31 29 29 26 23 22 20 19 24 29 31 33 32 33 34 34 38 42 42 44
33 33 41 50 45 43 41 40 39 38 40 41 40 40 37 35 35 36 39 39 39 39 38 37 33 33 33 28 29 25 26 23 24 29 32 34 34 35 37 37 38 42 46
36 46 45 46 45 48 47 42 41 40 40 39 42 42 41 38 38 38 41 42 43 43 40 41 40 37 34 33 31 33 31 32 27 28 33 34 33 34 36 38 40 44 47
44 42 46 48 49 45 42 41 42 43 42 42 45 46 50 47 42 41 43 46 46 46 44 41 42 40 39 39 40 38 34 32 34 31 29 35 36 36 36 38 41 43 47
44 47 49 47 43 42 43 43 42 44 46 46 46 48 51 53 54 49 47 48 49 50 51 51 50 52 50 44 42 44 41 33 36 36 32 33 35 37 37 38 42 45 46
48 49 45 41 41 43 46 47 46 45 46 47 47 47 47 49 53 59 57 53 51 51 52 54 55 53 50 46 46 48 49 40 39 40 39 36 37 37 39 37 37 41 45
49 49 42 40 43 44 41 43 43 44 46 47 47 47 47 48 49 49 58 57 55 50 49 52 54 57 56 54 43 43 45 43 42 48 48 42 42 42 40 39 36 35 39
49 56 44 43 42 44 44 44 46 49 51 51 49 47 46 46 47 45 48 52 49 48 42 41 44 48 49 54 58 53 47 46 43 49 58 52 48 45 45 41 40 37 36
43 52 43 43 45 48 48 50 52 53 50 47 45 45 43 40 43 43 44 43 43 41 40 35 33 35 36 37 40 46 56 52 59 45 47 59 57 50 48 46 44 40 37
51 46 46 51 53 50 51 51 50 51 47 44 43 44 45 43 42 41 40 40 41 40 37 33 31 30 30 28 29 34 37 39 59 46 42 62 66 57 55 49 50 45 42
42 42 46 46 46 41 43 45 45 45 44 41 38 36 35 34 34 32 31 33 31 33 35 31 28 28 24 25 24 24 29 33 34 50 41 49 39 42 52 56 54 45 44
45 47 46 39 42 45 49 47 46 42 33 31 30 28 28 29 28 29 30 30 33 39 31 38 32 31 28 23 27 26 26 27 36 33 34 37 41 41 41 46 51 48 46
41 49 49 52 41 42 40 41 40 36 29 27 28 30 31 31 30 30 32 32 36 40 39 34 33 36 33 31 23 22 27 25 25 31 34 30 38 34 41 39 35 36 39
48 50 50 31 37 37 37 36 30 29 30 32 33 35 36 37 38 38 37 34 36 40 42 42 43 29 32 32 30 24 26 29 23 19 34 34 34 41 41 34 33 39 43
43 44 35 29 36 37 40 27 28 32 33 34 38 41 43 44 44 41 41 41 38 36 39 41 41 36 35 35 35 33 29 31 32 25 20 31 33 32 31 37 38 40 39
45 35 27 33 36 38 34 31 33 35 36 40 43 46 47 46 44 42 42 42 40 38 39 40 41 40 37 31 35 37 31 29 30 35 26 20 22 24 32 38 39 39 40
43 39 29 35 37 37 33 34 36 37 41 45 46 47 46 45 41 39 37 37 36 36 36 39 40 44 42 38 35 33 38 37 32 34 34 32 27 30 32 34 36 37 35
36 29 31 35 35 33 34 35 36 40 44 45 45 44 42 41 38 34 32 33 34 34 36 37 37 39 38 34 34 36 37 38 37 37 36 33 36 34 35 37 38 37 34
21 26 31 32 34 34 35 35 39 42 44 44 44 40 37 34 31 29 27 28 29 32 35 37 39 38 38 33 33 33 34 37 38 36 37 37 35 37 39 39 38 37 35
22 26 28 33 35 34 34 37 40 44 44 43 36 33 33 31 28 26 24 23 24 26 29 32 35 36 33 31 31 30 32 34 36 34 36 38 38 40 39 40 39 39 39
22 26 30 36 35 32 33 37 41 43 43 36 30 30 31 29 25 22 23 21 21 20 23 26 27 29 28 27 26 28 30 32 32 29 33 40 38 43 46 47 47 46 46
26 30 34 36 33 32 34 37 42 41 39 32 29 29 27 24 21 20 21 21 19 18 20 21 24 25 24 24 24 25 25 27 27 27 27 34 32 36 40 42 44 47 49

GFSMA_700_spd_009.txt.gz
Wind_Speed
25 22 26 31 31 30 30 30 31 37 38 36 34 32 29 30 30 30 29 27 25 23 20 19 19 21 24 26 27 27 28 29 28 26 26 25 24 25 26 26 26 27 27
26 26 33 33 34 34 35 39 40 42 43 39 37 34 32 33 34 34 35 34 31 28 25 23 21 21 22 26 29 30 31 30 31 31 30 27 27 27 30 31 30 29 31
25 31 37 39 40 37 37 42 47 43 38 39 37 36 34 35 35 36 39 37 35 33 32 30 27 23 24 22 25 31 33 33 33 33 33 33 31 29 31 33 34 33 33
29 32 37 38 38 36 40 46 43 40 41 42 40 37 35 36 38 39 39 39 40 38 35 35 33 32 29 28 23 23 29 34 36 35 35 35 35 35 33 34 33 39 35
33 35 32 34 39 42 52 48 47 48 48 45 42 40 38 37 39 40 41 42 43 42 40 38 38 36 34 32 32 32 26 28 34 38 38 36 36 37 37 36 33 36 38
34 36 36 40 45 50 51 51 51 50 47 47 45 43 40 40 40 42 43 43 44 45 45 44 42 41 40 38 34 33 37 30 28 33 39 39 37 36 38 39 39 38 40
35 41 41 47 48 50 53 53 49 45 44 46 49 50 47 44 44 45 47 47 47 47 47 48 48 47 45 44 41 38 34 37 36 33 34 39 41 38 37 39 41 43 40
39 42 44 46 51 52 52 49 46 46 46 49 52 55 57 54 49 48 48 50 51 50 49 49 49 50 50 49 46 43 43 41 39 39 38 37 40 43 41 39 40 43 44
42 44 48 53 53 51 49 48 46 47 49 49 50 51 53 54 55 51 48 51 52 52 52 52 53 53 52 51 52 48 47 45 44 42 41 42 42 43 45 44 41 41 44
46 49 53 51 55 48 41 44 45 46 46 46 45 45 48 52 56 60 56 52 52 53 53 53 55 56 56 56 53 55 55 51 49 47 43 41 43 43 45 46 46 42 42
53 58 46 51 46 42 42 39 42 46 49 51 52 52 51 53 57 60 62 58 56 51 49 52 53 54 56 56 57 54 55 53 52 52 48 49 47 46 46 46 47 44 41
51 50 44 52 58 47 42 44 45 46 47 48 47 50 55 56 55 55 55 55 55 54 48 39 35 37 40 42 43 45 48 53 46 53 54 48 49 47 46 49 48 45 43
54 57 48 51 50 53 48 48 51 44 43 44 46 49 47 51 51 48 48 49 50 50 45 36 33 32 36 39 37 36 35 37 46 56 48 52 49 52 50 51 55 51 46
49 50 44 40 48 33 42 46 44 44 43 45 42 42 40 39 40 41 40 37 39 39 37 35 30 29 29 30 34 35 31 30 34 39 57 53 53 56 54 60 61 58 54
43 41 40 45 40 43 44 43 35 39 46 45 40 35 34 36 37 36 35 34 34 40 40 35 34 28 26 24 26 29 27 26 28 32 39 49 57 52 56 53 53 60 58
46 43 42 41 49 53 41 33 37 40 40 34 29 28 31 34 35 35 34 34 35 38 43 40 36 34 31 28 24 25 26 26 24 26 31 36 42 37 53 47 54 55 59
45 47 45 42 44 42 35 35 37 37 32 29 32 35 35 37 38 39 40 40 39 38 43 42 40 38 37 27 27 28 28 28 25 24 25 34 38 39 39 48 48 40 56
44 35 33 36 38 33 31 35 38 34 32 33 33 35 38 42 44 44 44 43 43 42 42 42 39 41 37 39 30 23 29 31 31 24 25 27 33 30 36 39 38 40 39
43 42 44 40 30 30 35 37 35 34 33 34 36 41 45 46 46 47 46 44 41 40 39 40 40 39 38 35 36 34 26 28 32 32 28 21 36 37 35 35 36 34 29
38 37 30 25 27 28 35 36 35 35 34 36 41 46 48 48 48 47 42 39 35 36 35 34 36 38 39 38 35 34 37 34 33 35 33 35 26 28 36 44 44 43 35
35 30 28 23 23 32 33 35 35 35 36 40 43 46 46 47 44 40 37 35 32 33 31 29 30 32 36 37 35 35 33 33 35 40 36 36 37 15 24 24 29 30 31
29 22 23 25 31 29 34 36 35 36 39 41 45 45 45 40 37 36 35 32 29 30 31 30 31 31 33 33 33 34 35 35 34 38 39 37 37 33 24 26 29 29 30
26 21 27 25 25 30 37 36 35 37 39 43 44 44 39 37 37 36 33 30 27 25 28 28 30 32 35 33 33 31 32 32 33 35 43 42 38 38 38 35 34 34 35
22 22 24 25 29 34 38 36 35 37 39 42 43 39 36 36 34 31 28 26 23 21 22 24 26 27 28 30 32 31 31 34 33 30 33 38 40 40 41 37 37 38 38
26 26 25 28 32 36 35 34 35 37 38 41 39 33 32 31 28 25 25 24 23 19 22 23 24 24 25 24 24 25 27 30 29 27 30 34 34 38 41 43 41 36 38
25 26 27 30 31 33 33 32 34 37 39 41 33 28 29 27 26 25 24 23 22 20 19 20 22 22 23 22 21 21 21 24 24 24 26 29 29 37 40 42 43 44 44

GFSMA_700_spd_012.txt.gz
Wind_Speed
21 22 21 26 28 29 31 31 32 33 37 38 35 32 33 29 30 31 31 31 32 32 31 33 31 28 28 29 30 29 30 31 30 30 30 29 27 27 26 24 25 24 28
21 22 25 29 32 33 32 34 36 38 43 41 40 40 37 35 35 33 34 34 36 38 38 36 35 33 30 32 34 35 34 33 33 33 34 33 31 29 28 29 27 28 26
23 25 30 33 37 35 33 36 40 43 46 46 43 41 42 42 43 39 38 38 39 40 42 41 40 38 35 33 33 36 38 38 37 35 35 36 36 34 32 31 32 31 30
27 29 31 34 31 36 36 44 46 48 51 49 47 45 45 41 40 41 42 43 43 42 44 43 43 43 42 38 35 33 36 39 41 40 38 37 38 38 37 34 34 35 34
28 31 33 38 34 38 49 46 49 52 53 52 51 49 44 40 39 39 40 42 45 47 47 47 47 46 45 45 42 38 35 35 38 42 40 41 40 40 39 39 38 36 38
33 35 34 39 45 46 47 51 51 53 55 56 52 49 46 42 42 42 42 45 47 49 50 50 50 50 49 48 48 46 41 38 37 38 41 39 41 40 41 41 41 42 39
34 39 42 45 47 49 50 53 56 55 53 54 51 49 46 45 47 49 49 47 49 50 51 52 53 54 53 53 51 50 48 45 42 39 39 41 39 41 43 42 42 42 42
37 40 43 46 48 51 55 57 52 53 50 49 49 49 53 53 51 50 50 47 47 48 51 52 54 53 54 55 55 54 53 52 49 45 40 38 44 42 42 45 45 44 44
41 45 48 51 54 54 56 52 51 53 49 51 49 46 48 50 51 49 47 47 46 49 50 51 53 55 56 54 53 55 55 55 54 52 49 46 44 43 45 43 46 47 44
51 53 55 56 53 54 55 54 55 54 53 42 42 42 42 45 48 52 51 50 54 56 55 51 54 56 59 59 57 54 54 55 57 56 54 52 51 48 46 46 45 47 47
54 54 55 53 53 57 52 53 53 49 46 43 43 42 43 43 45 50 53 52 50 52 52 48 48 51 52 56 58 58 56 54 55 58 58 57 53 51 51 48 41 46 46
52 51 50 50 47 46 44 45 47 51 42 42 42 45 44 43 46 49 48 45 44 40 45 46 45 43 40 42 47 51 54 56 57 56 59 62 58 54 55 55 50 45 45
48 48 49 49 50 48 44 46 50 42 41 42 40 40 43 45 43 42 41 42 43 41 42 43 40 37 31 33 37 40 42 41 39 45 50 59 63 61 59 59 55 50 48
49 50 50 49 48 41 45 43 52 47 41 35 37 42 39 35 34 34 36 39 42 41 41 39 37 36 33 27 31 34 35 35 34 32 35 40 56 59 64 58 61 54 50
47 48 48 44 32 45 36 38 42 34 36 37 38 35 31 31 33 34 35 35 39 47 49 46 40 33 34 32 27 29 32 33 30 29 29 35 39 57 58 59 56 55 54
45 46 44 35 38 39 37 40 33 31 35 37 34 33 34 36 36 36 37 40 41 44 52 47 45 39 34 36 32 28 31 33 31 28 28 31 36 41 46 52 57 59 53
44 44 43 41 39 39 37 34 27 33 37 37 36 37 36 36 37 39 42 43 43 43 47 47 43 39 37 36 32 32 26 33 30 29 30 29 30 32 37 38 42 56 55
43 41 39 39 36 32 29 31 29 34 38 37 35 34 35 39 42 45 47 46 46 43 43 44 39 34 34 35 34 30 31 25 35 33 30 30 31 30 32 35 33 40 45
41 38 37 33 29 27 30 29 30 36 38 36 35 37 40 43 47 47 47 45 40 36 35 37 35 30 28 32 35 30 24 35 26 33 32 31 30 31 31 34 37 43 39
40 37 33 28 27 26 27 29 33 35 37 35 36 39 42 45 46 46 42 38 37 35 33 33 31 28 25 28 32 33 32 33 35 31 31 33 32 29 33 30 33 40 40
38 34 29 28 22 26 27 32 32 36 36 36 37 39 42 45 44 40 39 39 38 36 32 30 28 24 20 21 26 31 32 32 32 34 38 34 34 33 26 24 29 35 42
35 31 27 22 26 26 28 30 33 35 35 37 39 39 43 43 38 36 36 35 33 31 28 27 26 23 26 25 24 23 28 27 27 31 34 36 38 35 34 25 26 29 28
31 28 22 23 24 27 28 32 35 34 35 36 38 41 43 38 35 35 33 30 29 26 24 23 25 23 23 26 28 30 32 29 25 28 34 35 35 37 37 28 22 20 24
29 26 24 24 26 28 31 34 32 32 32 34 37 41 41 34 33 31 30 28 26 24 23 24 24 23 23 21 24 29 32 31 29 27 31 32 31 35 39 34 35 28 26
27 25 25 25 27 30 31 30 31 31 32 34 37 40 37 31 30 29 28 27 26 24 22 22 24 24 21 21 21 22 23 26 26 26 28 29 24 30 39 40 36 34 35
26 24 23 24 25 27 28 30 30 30 32 34 36 38 33 29 28 26 26 27 27 24 21 19 18 20 19 17 18 20 19 19 20 22 23 23 23 28 32 37 40 38 37

GFSMA_700_spd_015.txt.gz
Wind_Speed
14 17 19 21 23 27 30 32 30 31 36 38 37 36 37 34 33 32 33 34 34 32 32 34 36 35 33 34 34 34 35 34 34 35 35 33 32 32 30 28 27 26 27
16 20 22 24 28 30 34 33 33 32 41 42 43 43 42 41 40 39 38 39 38 38 37 37 37 38 39 38 37 37 37 38 37 36 36 36 35 33 32 31 29 29 30
16 21 25 27 31 33 35 38 38 41 46 46 46 46 45 45 47 46 43 40 39 39 39 38 39 39 40 41 42 40 40 39 39 40 38 40 38 37 36 34 33 32 31
23 25 28 32 38 40 37 40 45 47 49 50 50 51 50 50 49 47 45 43 41 39 39 38 39 41 42 43 45 46 43 44 41 40 40 39 41 41 40 39 38 35 35
27 31 34 34 37 39 43 45 47 50 51 51 53 54 53 51 50 48 47 47 46 46 46 45 44 43 44 45 47 48 49 46 45 43 41 40 39 42 42 41 41 40 38
32 32 34 37 38 40 44 47 49 52 53 56 56 55 49 47 48 48 47 47 48 49 50 51 51 51 49 48 49 50 50 51 49 47 45 42 43 40 42 43 43 42 42
29 31 34 37 39 43 45 48 49 51 51 53 53 53 52 52 52 50 51 50 51 52 53 52 51 51 52 52 52 53 54 53 53 52 50 47 44 45 40 41 45 44 43
35 38 40 43 47 49 51 53 52 52 54 54 54 55 56 56 56 52 51 51 54 52 50 50 51 53 53 54 54 53 55 58 56 55 53 51 49 46 46 43 42 44 44
40 41 44 47 50 52 53 54 55 54 53 52 50 49 50 52 52 49 45 43 44 45 46 48 51 54 54 55 56 56 55 56 58 56 56 55 53 50 47 47 46 44 44
43 45 47 48 49 50 50 50 49 47 46 45 44 45 35 38 42 45 44 43 40 41 44 45 46 46 46 49 53 56 58 60 56 57 56 55 55 53 52 49 49 49 44
45 46 47 48 47 47 46 45 43 43 42 41 41 39 41 39 41 44 44 42 44 46 47 48 47 45 41 38 39 50 53 55 56 55 56 54 55 54 53 54 53 52 46
44 46 47 47 45 44 44 44 41 40 44 45 44 48 35 33 36 41 44 45 43 43 45 44 43 41 37 33 34 34 36 39 45 48 51 56 54 55 55 55 57 55 52
43 44 45 44 44 44 42 43 38 43 45 43 40 35 37 36 37 38 39 39 40 39 40 42 41 38 37 35 32 31 32 34 35 36 36 40 52 54 55 57 57 56 54
43 43 43 44 44 43 42 34 43 43 43 40 36 31 34 36 34 35 38 40 42 42 41 43 42 39 35 33 35 31 31 32 34 32 33 35 37 46 51 56 57 60 60
43 42 42 42 41 40 38 37 40 34 28 29 31 33 34 32 34 36 36 38 41 47 47 43 44 41 40 35 35 32 31 32 32 33 32 34 35 37 42 41 44 56 56
42 42 42 40 38 37 34 32 30 29 30 32 33 36 36 35 35 35 37 40 42 46 51 45 45 42 40 38 34 33 31 33 33 34 33 32 32 34 35 40 35 41 56
43 41 41 39 36 35 31 28 30 30 33 31 35 36 35 35 35 37 39 42 45 46 49 43 40 37 34 36 33 30 31 30 34 32 32 33 33 32 31 34 39 39 47
43 41 40 36 34 31 27 27 27 29 32 33 37 37 36 36 37 40 42 45 46 44 42 39 36 36 32 30 31 29 25 29 30 30 32 34 34 31 29 29 29 32 37
43 40 37 34 30 26 25 26 25 29 32 36 36 36 36 37 38 40 44 45 42 39 39 38 38 36 32 27 27 27 26 23 30 35 29 32 35 33 29 27 28 28 33
43 40 36 31 27 26 25 25 28 29 32 34 36 35 36 37 40 42 43 39 37 38 36 35 33 31 28 25 24 24 27 29 29 31 37 30 31 34 32 27 24 27 28
40 37 33 29 25 22 22 27 28 30 32 35 34 34 34 36 39 41 37 35 36 35 33 31 29 27 23 22 19 20 21 27 29 33 31 33 33 31 31 31 24 19 24
38 35 30 26 22 21 26 26 28 31 34 33 33 33 34 37 39 36 31 32 32 31 29 28 25 25 21 19 21 23 23 23 23 28 32 35 37 35 31 29 21 14 30
36 33 29 26 24 24 24 28 30 32 31 31 32 33 34 36 38 34 31 30 29 28 27 27 27 25 24 20 20 27 26 27 26 26 27 32 34 36 35 31 22 17 25
33 30 27 25 24 23 25 28 28 28 29 29 31 33 34 35 36 31 30 29 27 27 27 25 24 24 24 22 20 20 24 32 32 30 27 29 31 32 32 33 29 22 15
30 27 25 22 23 25 26 26 26 27 27 27 30 32 34 34 32 28 28 27 29 27 26 24 23 21 20 19 19 20 18 20 25 26 28 29 27 29 31 31 31 28 30
26 24 23 23 24 25 26 26 27 26 25 27 29 30 32 33 29 25 25 26 27 26 25 21 18 17 16 15 16 18 20 21 14 16 19 23 24 25 25 28 30 30 29

GFSMA_700_spd_021.txt.gz
Wind_Speed
21 20 28 18 19 22 25 27 31 35 36 34 36 39 39 38 39 38 38 38 38 33 33 33 32 32 34 35 35 36 36 35 34 33 33 34 33 29 28 28 29 30 30
28 33 21 17 20 23 26 33 37 35 36 38 41 42 45 46 45 44 40 38 41 42 36 35 33 32 33 36 37 37 39 39 38 37 36 35 36 36 32 30 30 31 31
19 16 14 17 23 28 33 35 36 38 40 44 45 46 46 46 45 44 45 42 36 38 42 41 37 36 37 38 39 39 40 41 42 42 40 38 38 39 38 35 32 32 32
16 16 19 23 26 31 35 37 40 43 42 43 47 49 48 46 44 44 39 33 37 41 40 45 46 41 43 43 42 42 43 44 44 44 45 44 42 41 42 41 38 35 34
16 20 23 26 30 34 37 39 40 41 46 47 47 48 45 45 43 41 39 31 38 41 44 42 48 42 47 49 48 46 47 49 48 49 49 48 48 46 44 44 42 41 38
19 22 26 28 31 35 38 41 43 44 46 49 51 50 47 44 43 43 40 29 37 39 44 50 52 53 56 56 52 48 52 51 53 54 53 53 52 51 49 47 46 44 42
21 24 29 33 36 37 41 43 45 45 46 46 49 49 47 43 37 29 27 26 35 41 43 53 49 53 57 58 55 55 47 51 55 54 55 56 54 55 54 51 49 48 46
27 31 33 37 39 40 42 44 46 46 45 44 45 49 49 45 37 25 35 39 38 41 39 42 50 53 57 57 52 50 48 48 47 47 49 52 54 55 55 54 52 50 49
32 36 40 40 40 42 43 44 46 45 43 44 41 45 46 44 46 41 42 44 40 40 41 45 43 44 49 46 47 50 52 51 47 49 50 51 51 53 55 55 53 52 51
37 39 39 41 41 41 43 43 42 45 43 44 44 42 41 41 38 45 37 30 26 31 32 34 31 37 41 43 45 44 46 51 51 49 50 50 51 52 53 55 55 51 52
40 41 41 43 44 41 41 42 43 41 43 43 44 42 40 38 36 29 32 28 25 26 25 28 29 33 32 34 38 39 40 42 46 44 46 47 50 51 50 53 55 54 52
39 39 40 40 40 40 40 41 43 41 41 40 40 34 27 24 24 25 27 28 27 27 24 27 28 30 31 34 36 38 46 45 42 40 43 44 44 45 48 49 55 54 54
38 39 39 38 37 38 39 40 41 37 26 35 38 30 23 22 25 25 25 29 29 29 28 28 27 30 33 35 38 41 46 45 42 39 40 39 43 42 42 44 48 56 53
38 38 38 39 39 39 39 41 33 24 32 38 36 28 26 26 25 23 25 26 33 33 32 32 30 34 34 35 38 41 44 43 41 39 41 38 39 39 38 38 41 40 40
37 39 40 41 41 40 37 29 28 30 37 42 31 30 31 28 26 28 28 28 32 36 36 36 38 32 33 38 38 39 39 35 34 33 37 35 37 37 35 35 39 41 43
39 40 41 40 39 39 38 28 28 29 31 36 29 28 31 28 31 31 30 28 30 35 41 38 37 35 40 37 34 37 39 38 34 32 32 33 32 36 34 34 34 40 42
41 42 41 42 41 38 34 31 22 26 31 32 29 32 29 32 32 33 32 31 31 32 39 43 41 44 42 39 40 37 37 35 33 30 28 30 32 33 34 34 31 33 40
41 42 42 44 42 36 34 31 24 28 29 28 32 31 32 31 36 37 32 30 32 34 37 46 46 44 40 39 37 34 32 29 30 26 20 24 25 28 32 36 32 30 31
42 43 44 43 42 39 34 29 24 25 26 25 27 31 33 35 38 38 37 36 37 40 43 46 45 39 38 35 33 30 28 27 25 17 23 25 29 31 32 34 33 28 27
43 43 43 42 36 35 26 23 23 25 27 26 28 32 35 37 37 36 35 36 39 41 42 40 37 37 34 30 25 25 25 23 21 19 22 23 20 30 28 31 28 27 25
44 44 42 38 35 24 28 28 29 24 24 25 30 33 34 36 35 34 34 35 37 39 37 34 34 33 31 27 27 24 24 24 20 17 20 26 16 12 22 27 30 29 25
44 43 40 36 31 24 28 30 27 24 26 28 30 31 32 34 35 36 36 34 34 35 32 31 31 31 29 26 24 20 23 25 22 14 19 14 17 20 16 17 24 26 27
42 39 37 35 30 28 24 25 24 25 26 27 29 29 29 30 33 33 34 34 33 29 28 29 30 30 30 28 26 24 22 24 21 22 21 22 20 18 14 14 26 28 24
38 36 35 34 29 28 23 24 24 25 26 27 28 27 28 29 33 30 31 30 29 26 26 27 28 30 28 25 25 25 26 25 24 23 25 25 22 21 28 27 30 26 23
35 34 31 30 26 26 23 23 24 25 25 25 26 26 28 28 30 28 29 29 26 24 24 28 29 25 20 19 18 17 17 20 21 16 12 16 17 24 25 24 23 22 24
33 32 31 27 25 24 24 22 24 24 24 24 24 26 29 26 25 25 26 27 25 24 24 25 25 16 15 14 13 13 12 14 15 12 10 13 13 17 21 14 17 18 22

GFSMA_700_spd_024.txt.gz
Wind_Speed
18 24 25 25 31 30 24 23 27 29 33 32 35 38 39 39 41 41 42 38 34 36 37 34 34 33 32 30 29 30 30 30 29 29 30 31 32 31 27 27 26 26 27
21 21 21 21 17 19 20 26 29 31 32 34 38 41 43 44 44 43 44 46 42 38 39 38 32 32 35 34 34 34 34 34 34 33 33 32 33 34 34 30 29 28 29
20 20 16 13 16 20 24 26 30 34 36 37 39 41 43 45 45 42 41 41 40 42 42 43 42 40 34 35 38 38 38 38 38 38 38 37 36 35 36 36 33 32 31
19 13 14 16 18 22 26 28 32 35 39 42 43 44 45 43 41 41 39 36 33 37 41 44 45 41 42 40 40 39 41 44 44 42 44 43 41 40 38 38 38 36 34
13 16 17 18 22 26 31 34 37 40 41 43 44 44 47 46 43 38 36 37 27 30 35 43 50 49 48 49 48 43 45 46 46 48 51 48 46 46 43 42 41 39 38
15 18 20 24 27 31 35 39 41 41 41 42 44 45 46 44 40 38 37 30 30 32 38 45 49 50 55 58 61 59 56 50 50 49 52 53 52 51 50 47 46 44 42
16 19 25 29 32 34 38 42 43 43 43 43 43 44 44 44 41 35 41 40 39 38 40 41 47 51 56 60 58 59 57 60 57 52 48 45 52 54 55 53 50 50 47
20 27 29 32 34 38 39 41 41 43 42 41 42 42 45 45 43 43 39 38 39 41 42 44 50 52 49 57 59 54 49 49 45 45 48 46 44 46 51 53 54 52 51
28 32 37 39 42 39 38 39 40 42 42 38 40 41 45 48 49 47 46 42 43 47 47 44 47 49 48 51 47 44 43 45 48 47 45 45 47 46 47 49 50 52 52
28 36 39 41 40 37 37 38 39 39 39 40 40 42 44 45 48 50 47 43 39 36 37 38 40 42 40 42 39 36 37 40 41 42 41 41 47 47 46 47 49 48 50
37 38 39 37 37 38 39 37 38 38 37 39 42 43 43 40 39 41 44 40 38 34 32 28 31 35 33 36 37 36 38 43 46 47 44 39 42 43 44 45 48 48 49
32 35 35 35 36 37 37 38 38 38 39 41 43 39 36 37 41 36 36 35 35 31 29 29 31 33 33 37 37 39 42 46 50 51 47 40 40 43 42 40 41 45 48
34 34 34 35 36 36 36 37 35 38 36 33 32 34 38 38 32 28 29 34 32 33 34 34 31 34 37 37 39 42 45 43 44 45 44 41 39 40 41 39 37 40 42
36 36 34 36 38 37 37 37 38 38 27 27 31 34 36 36 31 24 34 34 37 34 38 37 35 33 37 37 40 42 42 45 43 37 34 32 33 36 36 38 37 36 38
35 35 36 38 38 38 40 41 37 32 27 31 36 37 36 38 27 30 33 28 37 40 43 38 36 36 38 41 44 43 44 42 38 37 35 33 33 31 33 35 35 34 36
33 35 38 39 40 40 39 38 37 31 29 27 29 35 36 31 25 35 31 36 37 39 47 39 38 40 43 46 45 45 41 38 38 36 34 33 33 32 31 33 34 33 34
35 37 39 40 40 42 42 41 35 34 30 27 29 33 23 18 35 36 35 39 42 42 43 42 41 43 46 45 45 41 37 36 35 34 32 31 32 30 28 31 32 32 33
37 39 39 40 40 41 40 35 34 29 25 25 30 30 29 36 37 36 40 41 39 38 39 44 43 44 44 44 40 38 34 32 32 31 29 30 24 20 23 27 28 30 32
38 38 39 40 41 38 37 38 30 25 27 27 28 29 28 32 36 40 38 37 38 38 39 42 44 42 43 38 36 34 30 29 27 26 25 21 22 24 25 23 25 25 29
37 39 40 40 39 36 34 32 29 28 29 26 24 28 30 34 37 36 35 35 36 37 39 40 41 39 36 33 32 33 31 28 27 25 24 26 21 19 24 20 25 23 27
37 40 41 41 38 35 33 29 29 30 31 29 29 30 32 33 34 34 33 33 34 35 36 37 36 34 32 31 31 29 28 25 21 23 22 20 24 24 16 15 16 21 25
38 39 40 39 37 34 28 27 24 26 27 28 30 30 30 31 34 33 33 35 35 35 35 35 33 31 30 31 33 32 30 27 26 19 25 20 21 16 16 7 12 16 20
37 37 37 36 35 35 30 25 24 25 27 28 29 28 28 29 30 30 32 33 32 32 33 32 32 31 32 33 33 30 27 28 27 24 22 25 20 24 11 18 18 23 25
37 35 35 33 33 33 30 26 24 27 28 29 28 26 27 27 29 31 30 29 28 29 29 27 28 29 29 26 24 24 22 21 18 21 23 25 23 22 21 19 20 21 20
34 33 33 30 29 32 30 28 27 27 29 28 27 26 25 27 28 28 27 26 26 27 27 25 26 28 25 20 18 17 17 18 16 13 12 17 9 15 20 23 22 25 28
34 32 31 29 28 30 29 27 26 28 28 27 25 24 26 27 26 25 25 26 25 26 26 23 22 23 17 16 15 14 16 18 18 14 10 12 8 11 12 12 17 20 16

GFSMA_700_spd_027.txt.gz
Wind_Speed
17 16 17 17 24 27 28 23 22 26 25 27 29 32 33 35 37 39 40 39 39 38 35 36 36 31 28 27 26 28 29 28 29 29 29 29 28 29 28 27 26 24 24
18 18 17 21 18 16 16 19 24 25 26 30 33 36 37 38 38 38 40 41 41 40 39 37 37 39 32 32 30 31 32 33 32 32 33 34 32 31 31 31 29 29 27
18 20 22 20 16 20 21 21 25 28 31 34 37 37 40 39 36 36 37 38 38 37 38 41 44 42 40 40 36 34 34 36 37 35 36 37 37 36 35 34 34 32 31
27 23 21 16 20 21 23 25 28 31 35 38 39 39 39 39 39 37 37 36 37 38 39 41 43 46 48 48 42 41 40 42 39 41 43 41 40 40 40 39 38 38 37
25 22 18 18 18 23 28 29 31 33 35 37 37 37 38 38 36 35 36 36 37 38 39 42 46 50 54 56 56 54 49 49 48 49 50 51 47 42 43 44 44 43 42
18 19 18 17 20 26 28 31 37 37 36 36 35 35 36 36 35 34 36 36 37 39 40 44 48 52 55 58 59 59 58 57 59 59 54 54 55 56 49 46 49 49 47
19 19 20 24 28 31 33 36 37 35 35 35 35 34 34 34 36 35 36 38 37 37 39 43 48 54 55 58 58 56 56 61 62 61 57 52 47 51 57 55 49 50 53
17 19 20 26 30 32 35 35 35 35 35 34 34 35 34 34 36 38 38 38 39 39 40 43 47 51 53 52 55 59 61 59 55 49 45 43 43 38 41 46 50 47 49
22 24 26 31 31 33 31 30 33 34 35 34 34 36 40 41 43 43 42 43 40 40 43 46 50 52 51 50 52 54 52 48 37 34 32 33 36 36 35 40 43 44 47
27 35 32 31 33 33 32 32 32 35 35 36 36 36 39 42 44 45 45 46 45 44 36 33 36 40 43 46 47 47 46 39 37 36 36 35 36 39 40 37 38 43 46
30 38 40 35 37 34 34 36 35 34 35 36 37 41 41 41 39 41 47 44 40 31 30 33 27 29 35 40 40 43 44 43 42 41 42 43 42 42 42 40 39 40 42
36 41 41 36 34 34 35 36 34 36 38 39 39 40 39 41 39 40 42 39 36 31 30 30 32 30 31 36 40 42 44 45 43 44 45 43 43 43 42 41 40 39 40
39 40 37 38 37 35 35 36 34 34 36 36 37 37 37 38 37 36 39 38 38 32 36 32 32 35 37 37 37 38 40 40 40 42 43 43 38 36 37 37 38 38 37
42 36 37 39 38 33 36 37 35 35 36 36 36 36 35 36 35 36 37 37 34 37 40 33 38 37 41 37 37 37 37 39 41 42 43 40 36 35 36 35 34 34 34
37 37 37 37 35 33 35 36 38 38 35 33 33 34 35 35 32 35 33 31 33 43 41 40 44 42 39 39 39 38 39 41 42 42 40 38 37 35 35 34 34 32 31
34 34 35 35 35 34 36 37 36 35 34 33 31 33 34 35 35 32 28 31 37 41 44 46 44 42 41 40 40 41 42 42 41 38 37 37 35 35 34 32 32 33 31
35 33 33 34 33 33 36 35 34 33 33 29 26 29 28 30 29 26 31 36 44 40 47 48 42 40 41 41 41 41 41 39 36 35 35 34 33 34 34 31 31 31 33
36 36 33 36 32 34 36 37 34 31 29 28 28 29 30 30 29 30 33 37 40 44 44 44 40 39 41 40 40 40 37 33 33 34 32 32 31 31 32 30 29 29 30
37 40 34 31 33 36 34 34 36 34 29 29 31 31 29 30 33 33 35 37 37 37 36 39 40 40 40 38 37 34 32 31 32 31 32 32 31 30 23 28 27 26 26
36 32 31 31 34 37 35 31 30 32 31 30 30 31 29 31 33 34 35 34 33 33 35 37 38 37 35 33 32 32 32 30 31 29 29 31 29 26 23 21 24 26 27
30 32 33 29 35 37 36 31 31 31 28 28 29 29 30 32 33 34 31 30 32 33 34 33 32 33 31 29 29 30 33 33 24 26 27 26 28 26 25 22 19 23 23
28 34 27 31 35 37 37 29 30 29 27 27 28 29 30 33 33 30 28 31 33 34 32 33 33 33 27 27 29 32 29 26 24 22 27 23 27 25 21 21 13 17 19
32 27 28 31 35 37 34 29 28 28 26 27 28 29 31 31 29 27 29 30 28 28 30 31 31 30 29 29 31 27 24 25 24 20 20 18 20 21 22 25 13 13 16
24 28 31 34 36 34 31 28 28 28 28 28 29 30 31 29 25 26 27 25 25 26 27 28 30 29 28 29 24 22 21 21 18 15 19 21 16 17 21 26 21 16 20
27 32 35 36 31 30 29 28 28 28 28 29 29 30 29 26 24 26 24 24 24 24 25 26 27 26 27 24 21 19 18 15 13 17 15 22 15 13 13 20 23 25 25
30 35 35 32 29 27 27 28 27 28 28 28 28 30 27 23 25 24 24 24 24 24 23 23 23 22 24 19 16 16 13 13 17 16 17 20 11 12 9 10 9 21 23

GFSMA_700_spd_030.txt.gz
Wind_Speed
14 15 17 19 21 22 19 18 18 21 23 25 27 29 34 35 35 35 36 37 36 35 35 36 34 32 33 29 26 28 29 31 31 31 31 32 31 31 32 29 29 29 28
16 18 20 20 19 18 18 20 22 21 23 27 30 34 36 36 35 34 34 35 35 34 33 34 35 34 33 33 32 30 28 31 34 35 36 36 35 34 33 34 32 31 32
21 19 18 22 21 22 20 20 22 26 29 31 32 35 37 37 36 35 36 36 35 33 33 33 34 35 36 38 39 38 39 37 36 37 40 39 38 38 38 37 37 36 34
25 26 28 26 22 19 19 21 25 28 28 31 36 37 36 35 34 34 32 32 33 33 33 35 37 40 42 43 45 47 49 48 45 47 48 45 44 43 41 42 41 41 40
18 20 20 22 21 21 22 26 32 32 34 36 37 34 33 34 34 32 31 31 33 34 34 37 41 44 45 47 49 52 55 57 57 56 53 55 55 53 48 45 47 47 45
16 16 19 20 22 24 28 33 33 34 36 35 33 33 33 34 34 32 32 33 34 35 38 40 43 46 49 53 56 57 59 61 62 61 61 57 57 56 59 57 51 51 51
16 18 19 21 25 26 31 31 34 34 34 33 34 33 33 33 34 34 34 34 36 38 40 41 44 47 50 53 56 59 61 60 59 57 58 60 63 59 54 55 59 54 54
18 19 20 24 26 34 33 32 36 35 35 34 35 35 34 34 35 37 36 38 39 39 38 40 42 46 51 55 58 60 61 60 59 57 55 52 44 37 34 37 42 49 50
16 18 22 24 31 31 34 39 35 35 35 35 36 36 38 39 39 39 40 41 41 39 38 38 40 43 46 50 54 55 53 50 49 46 40 33 32 35 33 32 35 38 43
17 20 25 30 34 36 35 35 36 35 36 36 38 38 38 41 42 44 42 42 42 41 40 35 31 31 33 38 42 43 44 46 47 46 41 35 36 38 40 38 36 37 39
23 26 29 35 38 38 37 38 37 39 40 38 38 39 40 40 40 41 43 41 41 37 34 32 32 32 32 33 37 37 39 44 47 47 45 43 41 40 41 43 43 38 38
29 30 30 35 39 36 37 39 39 40 40 38 39 41 42 42 42 41 43 42 43 40 34 32 30 31 36 36 36 38 39 44 45 45 44 42 43 43 43 44 46 45 40
31 36 34 38 35 38 41 40 40 40 40 39 40 39 40 40 40 41 42 42 43 40 39 35 32 35 36 36 41 44 43 39 39 40 42 43 45 45 44 43 43 42 40
37 40 38 39 39 39 41 42 40 41 42 40 37 37 38 36 36 38 39 40 37 42 41 36 35 38 38 43 44 41 40 39 38 40 43 45 46 45 43 40 39 39 38
40 41 51 41 43 41 40 40 40 43 40 36 34 34 34 34 32 32 34 37 38 39 37 42 42 47 45 46 45 43 42 42 42 42 44 45 46 44 40 37 36 36 36
49 47 46 47 48 39 39 40 36 36 34 34 35 35 33 32 32 31 31 31 30 32 36 42 47 48 47 46 45 44 43 43 44 44 44 43 41 39 38 36 35 35 35
50 48 43 47 43 39 40 35 35 32 34 35 35 32 32 31 31 30 28 30 32 36 41 45 44 46 45 44 43 42 43 43 42 41 39 37 35 36 37 36 36 35 35
46 52 47 44 43 33 37 42 37 34 32 33 34 33 33 33 33 31 30 32 34 37 39 42 42 42 42 42 43 42 39 37 35 33 34 34 34 35 36 35 35 35 34
49 51 49 47 41 43 36 29 30 32 36 35 32 33 32 32 31 31 32 34 34 34 36 39 41 41 42 39 37 35 33 30 30 32 35 36 36 36 35 35 34 31 32
53 53 45 42 43 39 28 28 31 35 34 34 33 33 32 30 30 32 33 33 33 34 35 37 39 39 35 31 33 33 29 29 30 31 32 31 31 30 28 29 29 29 28
54 51 44 40 43 30 28 31 33 33 33 32 32 31 30 30 31 32 32 32 32 33 36 37 34 32 30 30 29 28 30 31 24 26 26 25 31 29 27 28 28 26 25
56 44 41 43 31 28 31 34 33 31 32 32 31 30 30 30 31 31 30 30 32 35 35 33 32 32 31 31 29 29 30 27 22 22 26 20 25 23 23 25 25 20 24
39 37 37 26 26 31 34 36 34 32 31 31 31 31 30 30 30 28 28 29 31 32 33 33 31 31 31 30 29 29 24 24 22 18 23 19 18 18 20 23 24 24 16
34 32 25 24 30 33 34 33 32 31 31 31 31 30 30 29 29 27 26 28 27 29 29 29 29 28 29 28 28 26 22 19 15 10 19 22 18 17 16 19 22 22 22
26 25 26 30 33 31 30 31 31 31 31 30 29 30 28 29 28 25 25 25 24 25 26 27 26 27 28 27 27 24 20 19 14 12 15 24 21 19 14 14 15 20 29
22 26 30 31 32 29 28 30 30 30 30 30 28 26 27 28 26 24 24 23 23 22 23 23 24 24 25 25 24 22 20 18 17 15 17 24 24 19 12 13 12 15 20

GFSMA_700_spd_033.txt.gz
Wind_Speed
14 16 17 15 17 19 19 18 18 21 21 23 26 29 31 33 35 35 35 35 34 33 32 32 29 26 23 21 20 19 19 22 24 27 29 28 30 33 34 32 32 31 32
17 18 18 16 18 22 20 18 19 21 23 26 29 31 33 38 40 39 38 36 35 33 32 32 30 28 27 25 24 26 26 26 25 28 32 33 32 31 34 37 37 37 35
16 19 20 18 24 26 20 20 20 22 25 30 33 35 39 42 41 41 38 36 35 34 33 32 32 32 33 33 31 32 34 33 34 35 35 36 39 38 37 38 41 42 42
18 22 22 24 25 20 20 22 22 26 32 37 37 38 40 43 43 39 38 37 36 33 34 34 35 36 36 37 39 41 44 46 45 46 47 45 44 43 45 45 45 46 47
17 19 18 17 18 20 22 23 27 32 36 37 38 40 42 41 40 39 38 37 35 35 36 37 38 39 40 43 45 47 47 50 53 54 56 59 59 57 53 52 52 52 52
17 18 18 18 21 24 24 28 32 34 37 36 38 40 40 41 40 40 39 38 37 37 39 40 42 43 45 48 50 52 54 55 57 59 60 62 64 64 65 61 58 61 59
16 17 18 21 24 26 28 34 37 41 42 41 43 40 40 41 41 41 40 40 40 40 41 42 43 45 47 49 50 52 54 56 57 58 61 64 65 66 67 64 60 55 64
14 16 18 21 24 29 32 35 35 36 38 39 39 40 41 40 40 40 42 42 42 42 42 42 42 43 44 47 48 50 51 52 53 53 53 52 50 49 50 49 41 41 46
15 15 18 23 28 30 32 36 35 35 36 38 38 38 41 43 43 42 42 43 44 43 40 40 40 40 40 39 40 42 44 45 47 48 47 45 41 40 42 42 38 37 37
16 20 23 26 31 38 34 35 34 35 37 39 41 41 42 45 46 48 46 44 43 42 41 39 38 36 35 34 36 38 40 43 44 44 43 44 44 42 42 42 40 35 35
22 26 30 33 37 41 41 45 37 39 39 41 43 44 45 45 46 46 48 45 43 41 39 36 34 32 34 36 34 36 36 41 41 43 47 49 47 45 43 43 44 42 38
29 32 36 39 42 40 41 46 44 42 42 42 43 44 44 45 46 45 45 45 44 41 40 38 32 33 35 34 36 36 40 39 42 46 48 50 47 45 43 42 43 43 41
34 39 40 41 41 42 49 45 42 42 43 44 44 43 45 44 44 43 43 42 42 42 41 37 32 36 36 36 37 40 43 46 46 43 43 45 46 46 44 43 43 45 44
41 40 46 41 41 55 45 48 45 44 42 41 44 44 44 41 40 39 37 38 40 40 38 34 32 31 32 37 44 48 51 48 45 43 43 45 46 46 46 45 45 45 45
45 40 46 49 47 50 49 44 45 45 47 47 46 45 38 37 38 36 36 36 35 36 35 32 32 36 38 43 48 49 47 44 44 43 44 45 46 47 47 46 44 43 42
44 44 46 44 51 53 54 51 43 46 45 45 41 42 37 36 36 35 34 33 33 33 34 35 38 42 44 45 45 45 43 43 44 45 47 47 47 46 45 43 40 36 36
40 41 44 47 51 51 53 46 42 45 44 40 35 34 34 35 34 33 31 31 31 33 36 35 38 41 42 42 42 42 43 44 44 44 43 42 40 39 38 38 36 35 34
39 41 45 48 50 50 47 42 44 41 38 35 33 34 34 34 33 32 31 32 32 34 37 38 38 38 38 40 43 43 41 39 40 38 37 36 35 35 36 37 38 37 36
39 43 48 51 51 48 39 41 39 32 33 36 36 35 35 33 33 32 32 33 34 36 37 37 37 38 39 38 38 38 36 36 34 34 34 36 37 36 36 34 35 36 36
46 49 51 53 51 38 39 39 31 32 33 36 38 37 36 34 33 32 32 33 34 36 35 35 37 37 36 34 35 36 32 33 30 31 32 32 31 31 31 32 31 31 31
54 55 55 51 38 43 37 29 31 34 37 38 37 37 36 34 33 33 33 34 34 34 33 35 34 34 34 33 33 33 32 29 27 26 26 24 28 28 27 27 26 27 28
53 53 45 36 43 39 28 29 34 37 37 36 36 36 35 33 32 32 33 33 33 31 33 33 33 34 34 34 32 31 31 28 23 21 23 16 25 22 24 23 20 23 26
55 46 38 41 39 28 29 32 36 36 35 35 35 34 33 32 32 31 30 31 29 30 31 32 33 33 32 32 32 30 28 26 21 20 24 17 22 21 22 22 23 22 23
42 37 42 35 31 28 32 33 33 34 35 35 35 33 32 31 30 28 30 28 26 27 28 29 30 30 30 30 29 29 28 24 18 15 21 24 22 24 24 22 21 20 20
39 44 38 29 29 30 31 31 32 34 35 35 35 33 32 31 28 28 29 26 25 24 25 26 27 27 28 29 29 29 26 24 17 13 16 23 18 21 21 19 18 16 17
41 34 26 29 30 31 32 32 33 34 36 35 35 32 31 31 28 28 28 25 24 23 23 23 24 26 28 28 28 28 27 24 19 13 13 16 20 24 26 17 15 16 18

GFSMA_700_spd_036.txt.gz
Wind_Speed
9 12 14 15 16 16 18 20 18 18 18 20 23 28 32 33 34 36 35 36 35 33 33 34 34 27 22 21 21 20 19 18 20 21 22 22 21 22 23 25 27 28 29
11 14 16 17 17 17 22 18 18 20 21 24 29 34 36 36 37 37 38 38 36 36 35 35 35 34 32 27 26 26 25 24 24 25 26 28 29 29 29 29 30 30 31
14 13 14 16 17 18 17 17 19 20 22 26 31 35 36 39 41 41 41 39 39 39 38 37 36 35 36 36 34 32 30 31 32 35 35 34 32 33 35 37 37 36 36
12 14 14 13 12 13 15 17 19 22 25 30 33 36 37 40 42 43 42 42 42 41 39 39 38 38 38 39 39 39 38 40 42 44 44 46 45 43 41 40 42 44 45
14 14 14 13 13 13 16 19 22 26 31 36 39 42 43 45 45 44 43 43 43 44 43 42 42 43 44 44 45 45 45 46 47 49 51 53 55 56 55 53 49 49 48
14 15 15 15 14 16 18 21 27 31 34 39 41 41 42 43 41 41 42 42 43 44 44 44 44 45 46 48 49 49 51 51 51 52 54 56 59 61 62 62 62 61 59
15 15 16 16 17 19 22 29 31 32 36 39 40 38 38 40 41 42 42 42 43 45 46 46 46 46 46 47 48 49 50 49 49 49 50 51 54 56 58 60 63 65 67
16 16 15 18 20 23 28 31 33 31 36 36 35 40 42 38 40 42 43 45 47 47 49 48 48 47 47 48 48 47 47 46 45 44 44 46 49 51 51 51 55 56 57
16 17 19 21 24 27 30 33 35 36 39 38 37 41 44 40 43 43 44 45 48 49 51 52 50 48 47 46 46 46 46 44 42 42 42 43 44 45 45 44 46 49 50
18 20 22 26 29 33 37 39 41 44 47 45 42 45 40 43 45 48 49 51 52 50 50 50 48 46 46 45 44 42 42 42 41 41 40 42 44 44 46 47 45 44 44
22 24 27 31 35 38 39 44 44 44 42 45 44 43 43 44 44 48 52 52 49 47 45 44 43 41 42 42 40 39 40 40 40 41 41 43 45 46 47 45 45 44 43
25 28 33 38 40 43 43 44 48 50 43 46 46 41 43 44 46 47 49 48 48 45 43 40 38 38 38 36 38 41 41 41 41 42 46 48 51 49 47 44 42 42 41
31 35 39 42 44 52 41 45 43 49 44 48 44 41 41 43 45 45 43 41 44 45 44 41 38 35 33 31 30 33 40 42 45 49 49 51 49 47 46 44 43 42 42
36 38 38 42 52 46 39 46 48 46 46 45 40 41 43 44 42 42 42 41 41 43 44 41 39 33 28 28 32 38 42 45 49 50 49 47 45 45 45 43 42 42 41
32 32 35 33 39 44 47 45 44 46 43 43 42 42 42 39 37 37 37 37 40 42 42 40 38 36 35 35 38 41 43 44 44 44 44 43 43 45 46 45 45 44 43
28 31 35 40 41 43 46 45 48 49 42 42 43 39 36 35 35 35 36 37 38 37 38 35 35 37 39 40 40 40 40 41 42 43 43 43 42 42 41 41 40 39 38
31 29 35 41 41 43 44 47 50 43 42 42 37 34 33 34 34 36 36 35 35 34 35 34 34 36 38 39 39 40 41 42 40 39 38 39 38 37 36 35 35 33 32
32 28 35 41 42 45 48 50 40 40 41 37 33 34 34 37 36 36 36 35 34 34 35 35 35 36 36 36 39 40 38 38 37 37 38 37 35 33 34 34 35 35 35
34 33 42 49 47 52 52 45 39 40 38 33 34 36 38 37 36 35 35 35 35 35 35 37 36 35 35 36 37 36 35 34 33 36 36 34 33 34 33 32 31 31 31
37 45 48 48 53 60 43 38 41 40 33 33 35 37 37 36 35 35 35 35 34 34 35 36 35 34 35 34 35 36 33 32 31 31 31 29 29 28 30 30 30 30 30
44 57 47 57 66 38 37 41 41 36 33 34 36 36 36 35 35 35 35 34 34 34 35 35 32 33 32 32 33 33 34 31 28 29 25 24 25 23 24 25 27 26 25
47 45 53 57 40 38 41 41 36 33 33 35 36 35 35 35 34 34 34 33 33 33 34 32 31 31 29 30 31 32 33 31 27 25 22 15 21 20 23 23 25 25 23
53 55 49 44 40 42 41 34 30 32 34 35 36 35 35 34 34 34 33 32 31 32 32 30 29 28 26 27 29 30 30 29 26 24 24 18 18 18 21 24 25 23 22
57 43 42 42 41 37 35 30 32 34 35 35 35 35 36 35 34 34 33 31 31 30 30 28 28 25 24 25 28 30 31 28 25 22 22 23 18 15 20 24 25 22 20
42 38 38 39 37 30 32 31 34 35 36 36 36 36 36 35 34 34 33 31 30 29 29 28 27 24 23 24 27 29 30 29 24 20 17 24 15 18 16 20 23 23 18
39 38 35 34 32 33 33 34 36 37 37 37 37 37 37 35 35 34 33 30 30 29 28 27 26 24 23 24 26 28 29 30 27 22 17 21 14 21 20 22 21 21 18

GFSMA_700_spd_039.txt.gz
Wind_Speed
11 10 10 11 12 13 13 16 15 13 14 16 19 22 25 26 27 28 32 34 34 34 34 33 34 30 27 26 25 24 25 24 22 23 23 22 22 23 24 24 25 25 26
11 9 12 13 13 15 15 15 12 13 16 19 22 26 28 30 31 32 34 36 35 34 34 34 35 36 32 29 29 30 29 29 29 27 27 26 26 26 28 30 30 30 31
10 13 13 12 11 11 12 11 12 14 17 22 26 30 33 35 35 35 34 33 33 33 34 34 35 35 38 39 34 35 36 37 36 36 37 36 34 34 35 35 35 37 37
11 10 10 10 11 11 10 11 14 17 21 26 30 32 34 35 36 37 36 35 34 34 36 37 39 40 41 42 44 43 41 42 43 44 46 47 47 45 45 44 44 44 44
11 10 11 12 12 12 12 14 17 20 24 27 29 33 34 33 36 39 40 38 37 37 38 39 42 44 45 47 49 49 49 48 48 49 50 52 54 55 55 54 53 51 49
12 12 14 14 14 14 15 18 21 24 27 28 29 31 32 31 35 40 39 38 40 40 40 41 45 46 47 49 50 51 52 52 51 52 53 54 56 58 60 60 60 59 58
13 13 15 15 15 17 19 21 23 26 30 33 33 37 34 36 37 40 38 37 40 41 43 43 46 48 49 50 52 52 52 52 52 52 52 52 54 55 58 59 59 59 59
15 15 16 17 18 19 20 23 26 30 33 37 40 42 46 46 42 43 39 40 41 41 42 45 49 50 51 52 52 52 52 51 50 48 47 47 46 46 49 52 53 52 50
17 17 18 19 21 22 24 28 31 35 38 40 45 37 40 42 42 42 38 38 40 42 44 47 49 49 49 50 51 52 52 52 50 49 48 44 42 42 42 44 45 47 45
21 20 21 23 24 27 29 33 35 36 44 46 45 45 45 42 42 41 41 37 41 43 45 46 46 47 48 49 50 50 50 49 48 46 43 41 42 42 42 43 44 45 45
25 23 23 25 28 31 33 36 41 46 35 41 42 39 37 38 38 40 43 42 42 42 42 43 43 44 45 45 46 47 47 48 47 46 46 43 43 44 45 46 47 46 46
26 27 27 28 30 33 39 41 46 37 36 43 41 37 37 40 40 40 41 39 40 40 41 40 38 39 40 41 40 42 41 41 41 41 42 44 45 47 50 49 48 46 45
27 27 30 31 35 33 35 37 41 40 42 40 38 39 40 40 39 38 37 36 38 38 41 40 38 40 41 40 38 37 38 38 40 42 45 47 48 49 49 49 48 46 44
25 28 28 29 33 33 34 37 42 41 46 40 41 41 39 39 36 34 34 35 36 38 40 42 39 39 39 39 38 37 37 39 42 45 45 45 45 46 46 46 45 44 44
23 24 27 31 33 36 36 38 42 44 37 41 43 37 37 35 32 32 32 34 36 38 38 40 38 39 39 37 38 38 40 40 40 41 41 43 44 45 45 45 45 44 44
28 26 29 32 35 37 34 45 47 43 40 45 34 37 35 32 31 32 33 34 35 36 38 37 36 36 36 38 40 39 39 39 40 41 42 42 41 40 39 39 38 37 36
21 27 31 32 37 38 39 43 43 49 40 34 37 36 33 31 32 34 34 34 35 35 36 35 36 33 34 36 38 38 38 39 40 39 39 39 38 37 35 35 34 31 31
28 27 31 32 38 39 49 48 50 42 34 38 37 35 32 33 34 35 34 35 35 34 35 36 33 33 34 36 36 37 36 37 38 38 38 38 36 35 33 31 30 29 28
32 35 37 39 37 42 49 53 45 35 36 39 36 36 33 35 35 35 36 35 34 34 35 35 33 33 35 35 35 34 34 33 35 35 36 35 34 32 30 29 28 27 27
27 34 40 41 47 48 50 49 35 37 39 38 35 33 33 35 35 36 36 35 34 34 34 34 32 34 34 33 32 31 29 29 32 31 33 33 31 28 27 26 25 26 26
35 34 47 48 50 52 48 38 41 40 41 35 34 32 34 35 36 36 36 35 34 33 33 33 32 34 31 31 30 27 28 29 30 30 31 30 27 25 23 24 25 27 26
36 44 53 57 50 39 41 38 40 42 35 35 32 33 35 36 37 36 36 35 33 33 32 32 32 32 31 30 27 26 26 29 30 28 28 26 24 22 21 22 22 22 24
40 53 48 41 37 39 37 37 39 39 33 33 34 35 37 38 38 37 36 36 33 32 31 32 32 30 30 29 26 25 26 28 30 28 29 28 22 20 21 20 23 23 24
37 33 38 36 38 37 34 36 34 36 34 35 36 37 37 38 39 38 37 37 33 32 31 32 31 30 30 28 26 25 25 26 29 29 28 30 24 20 16 18 21 25 25
32 35 37 37 34 32 32 33 34 36 37 38 38 38 39 39 37 37 38 37 34 31 31 31 31 30 29 28 26 25 25 26 27 29 25 29 24 22 18 16 19 22 25
34 30 29 33 33 33 33 35 37 39 40 40 41 40 40 39 37 37 37 36 34 28 31 31 30 30 29 28 26 26 25 26 27 29 27 27 22 22 20 15 15 21 24

GFSMA_700_spd_042.txt.gz
Wind_Speed
12 10 9 9 10 12 11 12 13 10 10 10 12 17 20 22 25 26 28 27 27 27 28 29 28 25 25 25 25 26 26 26 26 25 26 26 26 25 27 27 27 28 28
13 13 10 10 12 12 13 14 13 10 11 14 16 20 22 24 25 25 26 28 27 27 27 28 29 30 28 27 27 28 30 31 31 31 31 29 31 31 30 29 30 32 33
15 12 11 14 13 13 13 12 11 12 14 16 19 23 23 26 25 22 24 27 30 28 28 29 30 32 34 35 32 33 34 35 37 38 39 38 38 37 40 40 38 37 37
14 12 14 14 13 13 12 12 12 14 16 19 22 25 25 24 25 26 27 31 31 31 30 31 33 33 35 37 40 41 40 40 41 43 44 46 47 46 46 46 46 46 45
15 14 14 13 13 13 13 14 14 16 19 22 24 27 28 30 35 40 37 36 35 33 33 35 34 37 38 40 43 44 46 48 48 48 49 49 50 52 54 54 52 51 51
16 14 14 13 14 14 15 15 16 18 22 24 27 30 34 36 40 35 32 36 38 36 35 35 38 39 38 41 44 47 49 50 52 52 52 51 52 53 55 57 58 57 56
15 15 14 14 14 16 16 17 19 22 24 26 29 35 40 39 38 37 40 42 40 34 34 34 34 37 42 45 45 47 49 50 50 51 52 52 53 52 52 51 53 53 54
17 17 17 17 16 18 19 20 23 25 27 29 33 37 40 45 43 43 41 39 34 35 37 37 37 40 41 42 47 48 48 47 49 50 51 51 51 50 49 47 47 48 46
19 21 22 21 20 20 22 24 26 29 31 34 37 42 42 32 41 43 39 33 35 37 38 38 40 40 42 42 45 46 51 50 50 51 51 52 51 49 47 46 46 46 46
21 25 25 24 23 24 25 25 28 31 34 38 43 38 37 32 31 32 40 42 40 37 40 37 37 41 42 42 44 46 46 45 47 48 49 50 49 47 45 45 45 44 44
25 25 24 26 25 25 27 28 30 34 36 34 38 38 36 35 32 32 35 36 41 42 40 39 37 37 39 41 40 45 45 45 45 46 47 47 47 45 43 43 45 46 46
27 26 26 27 26 25 28 31 33 33 34 35 36 36 38 35 37 37 37 38 39 37 40 36 34 37 38 38 40 41 42 44 45 44 43 43 44 45 45 46 47 48 48
27 27 28 26 25 29 27 32 35 34 41 40 41 38 37 36 39 35 38 38 37 35 34 37 38 37 37 38 38 39 39 41 40 40 41 43 44 46 47 47 47 47 47
25 26 25 24 26 24 31 34 35 36 36 39 41 41 41 42 33 36 39 36 36 33 32 33 35 39 38 38 38 38 36 40 40 40 42 43 43 44 45 46 47 47 47
28 26 25 26 26 33 34 36 40 36 38 39 42 47 43 34 37 37 36 34 36 35 34 29 30 33 39 36 37 38 36 38 39 40 41 42 43 44 44 44 44 44 44
29 27 29 32 30 31 35 34 38 45 36 44 42 40 35 36 36 36 35 35 35 36 37 33 31 32 35 34 37 38 37 37 37 37 39 40 41 42 41 40 40 39 39
35 32 32 28 33 32 35 39 40 46 46 42 39 35 36 37 35 36 35 35 34 34 36 32 31 29 36 35 34 36 36 35 35 35 35 37 40 40 38 36 35 35 34
28 24 27 30 33 36 37 36 44 50 44 35 35 38 38 36 37 34 35 34 34 32 31 34 35 34 32 37 35 35 34 33 32 29 31 34 38 38 36 33 32 30 29
33 25 30 34 39 38 39 41 50 53 36 38 38 38 39 36 36 34 34 34 31 31 32 36 38 35 34 35 36 36 34 32 29 29 31 34 37 35 33 30 28 27 25
30 34 34 33 41 50 43 52 47 37 41 39 38 39 36 34 34 35 35 34 33 35 33 36 37 36 34 34 35 35 33 31 27 29 31 34 37 32 29 26 24 23 23
34 35 35 36 38 38 42 42 38 39 38 39 37 36 35 33 34 35 36 37 36 36 36 37 36 35 33 33 34 34 33 30 27 28 30 32 36 32 28 26 23 23 22
32 32 34 31 27 30 32 33 36 38 37 36 37 33 35 35 36 37 39 39 39 39 39 37 36 34 33 34 35 33 33 30 28 28 30 31 32 31 27 23 22 22 24
33 34 34 36 35 31 32 35 35 35 35 33 35 35 36 37 40 39 40 40 41 41 39 36 36 34 33 33 33 32 31 30 28 28 29 30 30 31 27 22 20 21 22
35 34 33 31 31 33 31 30 32 33 34 35 37 37 38 39 40 42 38 40 42 41 40 36 34 32 32 32 32 31 30 29 27 27 29 31 29 30 29 22 18 20 23
27 28 30 29 28 30 29 31 34 36 38 38 40 41 41 41 40 41 39 40 40 39 38 38 34 31 29 31 30 31 29 29 27 26 28 30 30 29 29 22 18 22 23
23 24 27 28 29 31 31 33 36 39 42 43 45 46 46 45 42 42 42 41 41 38 34 41 37 33 32 30 30 30 28 28 27 26 27 29 30 30 29 23 18 19 21

GFSMA_700_spd_045.txt.gz
Wind_Speed
14 11 9 7 7 9 11 12 13 12 9 7 8 11 13 13 16 19 19 18 22 25 27 28 26 23 22 23 24 25 25 25 24 23 24 25 26 27 27 29 28 28 28
16 13 11 9 11 12 13 14 14 11 9 10 10 12 15 17 18 17 22 22 25 28 29 29 31 28 26 26 25 27 28 28 28 30 31 29 28 30 33 34 33 32 32
16 15 12 13 13 14 15 14 13 12 13 12 12 15 18 18 19 20 28 35 38 28 29 30 30 31 33 32 29 29 30 32 33 33 35 36 37 37 34 35 38 40 42
17 15 15 15 15 15 15 14 15 15 15 15 16 19 20 21 23 26 30 32 22 32 37 31 29 31 32 33 34 34 34 36 37 37 39 40 42 43 44 45 43 42 44
18 18 17 15 15 15 15 15 16 16 17 18 20 22 24 26 29 32 35 32 30 33 34 35 29 31 31 32 33 35 37 40 42 43 44 46 48 50 51 52 52 54 53
21 19 18 17 16 16 16 16 15 17 20 21 24 29 31 31 34 38 40 34 36 33 30 29 32 35 33 31 34 35 37 40 42 45 47 48 49 51 51 52 53 54 55
21 20 22 17 17 18 17 16 18 19 21 23 27 31 36 42 42 39 32 36 36 35 32 29 29 30 37 38 41 39 39 41 42 44 46 49 51 52 50 50 51 51 52
20 21 23 19 19 20 20 20 21 22 26 25 27 31 35 38 43 44 35 33 34 31 35 37 36 34 36 36 40 46 47 40 40 44 47 49 51 52 51 51 51 51 50
20 22 24 23 23 25 24 24 24 25 28 29 28 33 35 34 31 34 43 36 35 35 36 34 36 37 38 38 38 41 42 42 45 47 48 50 51 51 52 52 51 49 48
22 24 25 26 27 27 28 27 27 26 27 34 34 37 32 32 33 30 33 41 41 42 39 37 37 37 40 41 38 40 41 42 45 47 48 49 50 51 53 53 51 47 45
24 27 28 26 27 27 29 29 28 25 29 33 33 34 39 38 37 34 32 26 31 36 40 45 44 40 38 37 38 44 41 44 46 45 44 46 48 49 49 47 46 45 45
24 27 31 31 30 28 31 29 30 31 30 33 36 36 37 37 35 34 36 35 34 34 37 41 44 44 39 39 40 44 43 43 45 44 44 44 45 45 44 44 43 44 45
25 25 28 30 31 31 29 27 30 25 35 36 37 42 39 35 34 37 39 34 35 37 38 36 38 44 44 41 40 44 44 41 43 43 40 41 41 42 43 44 44 45 45
29 30 31 31 30 28 28 26 26 36 37 37 44 45 39 38 39 38 33 33 37 38 40 38 32 31 39 41 43 42 42 42 40 40 40 38 39 39 41 43 44 45 45
29 31 30 29 30 29 29 31 34 35 37 42 40 38 45 36 33 32 34 34 36 41 41 35 31 32 36 38 41 43 42 42 40 37 37 38 37 38 37 38 41 42 42
27 27 29 31 32 39 35 32 32 34 37 39 42 44 47 32 32 34 36 38 40 41 43 36 33 33 31 32 34 42 41 40 38 37 37 35 34 32 33 36 39 40 39
28 28 30 32 34 35 28 28 37 39 40 37 43 49 35 35 37 36 39 39 40 39 37 33 28 28 32 35 36 41 41 40 39 37 36 34 31 32 34 38 40 38 35
30 31 33 34 31 36 29 33 44 46 48 43 39 39 42 38 37 40 39 38 39 35 34 36 33 32 32 34 36 39 40 39 36 35 34 31 30 32 34 38 38 35 31
32 35 34 35 38 33 36 38 45 43 45 41 39 41 39 37 38 38 38 39 36 32 33 34 37 33 34 35 36 37 37 39 36 34 34 31 30 33 33 36 35 32 28
35 35 35 37 29 33 36 39 44 38 44 39 39 39 39 39 38 37 36 36 36 36 34 37 37 34 32 33 37 36 36 31 36 36 34 31 30 33 35 37 34 28 26
35 33 29 33 34 36 32 33 39 39 38 38 38 40 39 39 36 35 35 35 37 39 38 36 38 36 36 34 33 32 37 38 36 36 34 30 29 32 34 35 34 32 27
34 34 34 36 39 38 39 39 36 38 39 38 37 38 37 37 38 39 38 39 39 41 41 40 41 40 37 38 35 35 37 38 38 32 33 30 30 31 33 34 32 29 27
34 35 35 37 39 38 37 34 35 34 35 37 37 38 38 38 39 41 43 47 44 43 44 44 43 42 40 38 37 38 36 36 36 35 34 32 29 30 31 32 32 28 25
36 36 34 34 32 31 31 30 33 35 38 37 38 40 41 42 43 43 44 45 46 47 45 43 44 40 38 36 37 36 33 34 34 33 31 31 28 30 30 32 31 26 24
32 31 29 27 27 28 29 31 35 37 38 38 40 42 45 46 47 47 47 49 47 43 43 44 43 41 40 35 34 35 33 33 34 32 29 29 28 30 30 31 31 25 23
26 26 25 25 27 28 31 32 33 37 41 43 46 46 48 50 50 52 53 48 49 45 40 39 42 42 40 39 37 39 35 30 30 30 26 27 27 30 30 29 30 27 23

GFSMA_700_spd_051.txt.gz
Wind_Speed
29 21 18 12 9 4 2 1 2 3 4 2 2 4 7 8 7 9 12 14 16 18 20 17 19 18 19 17 17 17 18 18 17 17 18 19 20 21 21 21 23 24 25
26 22 17 13 9 7 5 3 5 5 4 3 5 7 7 9 11 10 12 14 20 21 24 20 19 21 19 17 19 17 17 19 20 22 23 24 24 25 26 27 28 28 28
27 21 16 13 9 5 6 7 6 6 4 5 7 9 8 8 12 16 16 19 23 21 20 20 20 22 23 20 18 19 19 21 22 25 26 28 31 33 35 36 35 32 31
25 20 17 13 10 9 9 9 9 8 8 8 8 10 9 11 13 17 22 26 29 24 21 20 19 20 22 24 24 23 23 24 25 27 29 33 35 37 36 35 35 36 36
21 20 16 14 14 12 13 11 11 11 12 12 12 13 12 16 18 21 21 27 31 29 26 22 22 22 23 24 25 27 25 26 28 31 35 37 37 37 36 35 35 36 39
22 21 18 18 16 16 14 12 13 13 14 15 16 18 19 21 23 24 26 27 25 25 28 28 26 25 25 25 27 28 26 27 30 35 38 39 38 38 38 37 37 38 40
22 22 20 20 18 18 16 15 15 15 17 18 20 22 24 26 25 28 30 30 30 26 27 29 30 30 29 30 32 30 28 27 31 35 38 40 39 38 39 40 41 43 45
22 21 21 23 19 21 20 18 19 20 22 22 22 25 28 29 30 29 32 31 31 35 37 32 28 27 29 33 34 34 31 32 35 36 37 38 38 39 40 41 43 45 47
18 17 21 23 20 22 22 22 23 24 26 27 26 29 29 31 31 31 32 32 38 38 40 38 36 36 34 32 32 33 35 39 39 39 37 37 39 40 41 42 44 46 49
18 20 21 21 22 20 23 25 25 27 29 30 31 29 30 33 32 33 29 34 37 40 39 37 40 40 35 34 34 37 40 40 40 39 38 37 38 40 42 43 44 47 48
17 21 22 24 23 22 22 23 26 28 33 35 35 30 30 31 28 29 32 34 36 38 37 41 43 39 38 39 41 44 46 46 43 39 37 35 38 41 43 44 45 45 45
21 21 32 26 22 20 21 24 28 28 29 32 32 36 37 32 27 30 34 32 37 34 38 41 41 39 41 45 47 48 49 49 45 41 38 36 38 40 42 43 43 43 43
20 18 19 12 17 20 22 29 32 32 29 30 28 41 33 27 29 34 33 34 38 35 37 35 36 40 42 44 46 48 50 49 47 45 40 39 39 38 39 39 41 42 42
20 19 8 14 20 24 29 31 32 33 29 29 30 35 30 30 25 34 46 38 39 38 38 37 34 36 40 42 44 47 48 47 48 46 43 42 40 39 39 40 41 43 42
22 20 20 16 22 24 23 24 25 25 28 30 27 37 37 32 32 41 46 36 39 41 40 35 35 33 35 37 40 43 44 45 47 47 44 42 40 40 39 41 41 41 39
21 20 23 20 21 22 23 23 24 25 27 35 25 35 34 30 39 38 42 42 41 39 43 39 38 38 34 33 35 37 39 43 44 44 42 42 41 41 39 37 38 38 38
20 19 23 24 24 24 23 24 26 26 30 30 28 38 31 35 41 36 42 41 38 37 42 42 41 38 39 36 34 37 39 42 41 42 43 43 43 42 38 37 38 36 36
21 21 22 24 26 27 27 26 26 33 28 36 41 28 30 41 42 41 42 39 38 36 39 43 41 39 40 38 39 39 40 41 42 43 44 44 45 43 38 38 36 35 35
21 21 24 27 29 30 30 32 35 31 31 31 32 40 43 46 41 41 39 38 36 36 37 40 42 41 41 41 44 44 49 45 44 46 46 47 47 43 39 40 39 35 32
21 24 27 29 31 33 33 31 26 35 29 32 38 40 44 39 39 38 36 35 34 36 37 40 43 43 43 42 45 48 46 50 48 47 46 49 48 44 41 41 38 36 33
26 29 31 33 33 32 33 31 29 33 36 40 36 38 38 34 33 35 36 36 36 38 40 42 45 46 47 47 46 47 49 48 52 45 46 49 46 40 37 37 36 36 34
31 32 31 32 31 31 30 31 36 34 34 35 35 32 30 32 32 34 36 38 40 42 44 47 50 52 52 51 46 44 45 47 47 47 47 46 43 37 36 35 35 34 32
30 31 30 31 32 32 32 32 34 32 30 29 29 31 31 33 34 37 37 39 41 43 46 49 53 54 53 52 49 48 48 48 49 43 42 37 38 33 34 34 34 32 28
31 29 31 32 33 32 32 31 29 28 27 28 30 31 33 33 35 38 41 44 47 47 49 51 53 54 54 52 49 44 45 47 45 42 36 37 31 33 35 33 33 26 26
29 30 30 32 33 33 28 26 27 28 29 30 31 32 33 34 35 39 45 49 49 49 50 52 52 52 52 49 44 41 41 40 41 37 41 31 30 31 30 29 31 26 26
30 30 31 34 33 29 28 28 28 28 29 30 29 30 31 35 39 43 47 48 50 49 50 49 48 47 46 42 39 39 36 35 37 36 36 31 31 30 28 25 26 24 24

GFSMA_700_spd_054.txt.gz
Wind_Speed
31 25 24 20 14 8 6 4 3 2 5 6 2 1 1 3 3 4 6 9 12 17 18 18 15 13 15 14 12 14 14 14 14 15 15 16 17 18 19 21 22 24 26
33 27 23 20 12 9 6 3 2 2 3 3 3 4 4 5 6 8 9 11 15 19 21 19 17 15 14 15 14 13 15 16 17 18 19 20 20 21 24 26 28 28 29
33 24 31 20 13 9 5 3 3 3 2 3 6 6 7 9 10 10 12 14 17 20 21 19 18 18 18 17 15 15 16 18 20 22 23 23 25 27 29 31 33 33 32
29 34 23 15 14 13 7 5 3 4 5 6 8 8 10 12 14 14 15 17 18 22 20 19 20 20 21 22 20 17 18 21 23 25 27 28 29 32 32 35 36 36 36
33 28 23 19 16 13 10 6 5 7 8 7 8 10 12 14 18 18 20 22 22 22 22 20 22 24 23 24 25 24 24 26 27 28 29 31 34 35 38 39 38 38 37
36 27 22 19 17 15 11 8 9 10 10 11 13 14 15 17 20 22 24 25 26 27 24 24 24 24 24 25 26 26 27 29 29 30 31 34 37 39 41 41 40 40 40
34 29 23 20 18 15 15 15 14 12 12 16 17 18 21 22 22 25 27 28 28 27 26 28 28 25 24 24 28 30 31 30 30 31 34 38 40 41 42 43 44 43 43
29 26 22 20 18 17 18 18 17 16 17 20 22 24 27 27 26 27 30 29 30 28 28 27 29 27 24 28 32 33 33 31 31 33 37 40 41 43 44 45 46 46 45
27 24 24 24 23 22 22 22 22 20 20 22 26 26 30 32 32 30 29 30 31 30 32 31 33 31 29 29 32 31 33 34 35 38 39 38 40 42 45 46 47 47 46
21 22 22 23 25 25 22 23 22 22 23 25 26 32 33 34 38 32 31 28 29 30 34 32 33 35 37 35 35 33 34 39 42 40 38 37 39 41 43 43 45 45 45
21 24 24 22 22 27 26 23 22 22 24 27 29 29 34 41 33 34 43 22 28 30 31 33 33 35 39 39 39 39 41 42 44 44 41 40 41 40 40 41 42 42 44
20 21 21 23 28 33 30 26 23 21 25 28 31 30 34 31 26 42 38 29 24 29 38 39 32 35 38 42 43 44 45 46 47 47 47 44 41 40 40 42 43 44 44
17 15 16 19 14 12 24 21 18 24 28 31 31 30 30 28 32 34 31 28 34 32 37 33 32 36 39 41 43 45 47 47 47 48 49 49 45 42 42 43 43 42 42
17 14 17 15 13 15 18 19 22 28 29 28 30 30 28 31 31 37 30 29 33 42 39 33 36 38 38 41 43 46 46 45 47 48 49 49 48 48 45 43 41 40 40
20 22 20 19 19 18 21 21 23 25 26 27 23 31 34 30 29 33 30 34 40 43 43 36 42 35 37 40 41 43 42 43 46 47 48 48 47 45 43 42 40 40 40
27 24 21 21 22 22 22 22 24 26 27 26 27 31 38 38 30 34 32 35 40 41 48 46 44 41 38 38 38 38 40 41 44 44 45 44 44 44 43 42 41 40 41
32 25 22 23 24 22 23 24 27 29 29 27 28 32 35 41 41 33 33 45 39 40 49 48 46 42 42 40 40 41 40 41 43 44 45 44 46 45 46 46 42 41 42
23 17 26 24 24 24 26 28 30 30 30 30 34 35 36 42 36 35 46 45 41 42 45 48 45 41 40 38 40 42 43 45 45 45 46 49 41 46 44 49 40 42 43
26 24 26 25 26 27 28 31 32 32 28 36 39 38 39 36 38 44 46 43 44 43 42 45 45 43 42 40 41 43 45 47 46 47 48 44 48 50 48 50 39 42 39
21 22 24 25 28 31 33 34 34 31 38 35 35 32 34 39 43 42 43 43 40 41 39 40 42 43 45 44 46 48 50 49 51 48 45 49 49 50 47 50 40 43 39
20 23 25 28 31 34 35 34 35 36 33 38 32 39 39 41 37 42 41 38 37 37 37 39 43 46 47 47 49 52 54 53 52 50 48 48 48 47 47 56 37 37 38
25 27 30 32 34 34 34 35 34 35 32 31 40 35 34 38 38 36 36 37 36 37 39 43 46 49 50 51 53 56 57 57 56 51 47 48 45 42 41 34 33 39 36
28 31 33 33 33 33 32 32 31 31 30 33 34 34 34 34 35 34 33 33 34 36 41 46 49 49 51 52 55 56 56 54 52 48 44 47 45 43 46 36 33 34 35
31 31 31 31 31 30 31 31 32 32 32 33 32 33 33 34 34 34 33 35 35 38 41 43 46 48 50 52 54 55 53 50 48 45 37 42 38 37 36 27 29 33 35
31 32 31 31 31 30 31 33 33 32 31 32 32 33 33 32 32 35 36 38 38 40 43 45 47 48 49 50 51 51 47 46 45 36 35 39 34 32 31 23 28 31 29
33 32 31 31 31 31 33 33 31 32 32 32 32 32 33 33 33 35 37 40 43 44 45 46 47 46 47 47 46 45 43 41 39 37 34 30 28 30 34 27 23 23 25

GFSMA_700_spd_057.txt.gz
Wind_Speed
33 30 25 22 18 14 10 7 7 6 7 8 8 6 4 2 1 2 5 7 9 12 16 16 17 16 15 14 14 13 13 13 14 14 14 16 17 18 18 18 22 24 25
34 25 23 18 20 15 12 9 7 7 6 8 10 7 4 2 3 4 5 8 10 14 17 18 17 17 16 16 15 14 15 16 16 16 17 19 21 22 23 25 26 27 28
30 31 24 22 20 16 11 8 6 5 5 7 6 4 4 5 6 7 8 10 12 15 18 18 18 18 18 16 15 15 16 17 19 22 24 24 24 25 26 28 29 31 34
34 31 25 21 23 16 12 9 6 5 5 5 5 6 7 9 10 11 11 14 14 16 18 19 20 21 23 19 16 16 17 19 23 26 28 30 30 31 31 32 34 36 39
41 30 22 29 25 18 15 10 7 6 5 5 7 8 10 12 14 14 15 17 17 18 18 20 21 23 22 22 20 19 19 23 25 29 32 32 33 34 35 37 40 42 43
37 34 29 31 24 19 17 14 10 8 6 7 9 11 12 14 18 19 19 20 20 21 21 22 22 23 21 23 22 21 24 28 30 31 31 32 33 35 39 43 45 45 45
39 30 36 32 24 20 17 16 14 11 8 10 12 13 16 18 21 23 24 24 24 24 23 25 25 23 21 22 22 25 27 29 31 33 33 33 36 40 46 47 47 47 46
33 37 36 28 22 20 19 19 18 16 15 15 16 19 21 22 24 22 25 27 28 27 28 26 28 28 25 24 24 26 29 30 32 33 35 35 39 45 46 46 47 48 48
34 39 36 26 25 26 25 23 22 20 20 20 21 21 26 29 28 29 27 31 31 29 28 28 27 31 30 30 27 25 29 31 33 35 37 39 39 41 43 46 48 50 50
36 36 30 29 28 27 26 24 25 25 24 23 25 24 29 26 30 34 28 30 35 37 30 28 26 30 34 35 31 27 30 34 37 38 41 42 41 40 41 43 45 48 50
31 33 31 29 27 27 26 24 25 28 30 27 28 25 31 30 29 37 33 27 29 37 30 28 29 31 38 37 35 35 36 37 39 40 41 44 45 43 42 43 44 47 49
26 25 27 27 26 29 27 31 29 33 33 35 20 25 29 29 27 34 30 28 29 29 34 28 32 38 34 37 39 41 41 42 43 44 45 47 47 47 47 45 45 48 51
24 24 25 26 24 22 29 19 27 24 27 19 22 26 30 26 33 31 29 32 31 34 31 29 30 34 34 36 42 43 43 43 44 45 47 48 48 48 49 48 48 48 48
22 21 22 24 24 21 19 16 18 24 25 26 27 29 26 32 31 36 29 33 39 40 36 33 36 34 37 39 42 43 43 43 44 46 47 48 49 49 49 49 48 48 46
22 25 29 25 22 23 24 22 22 26 27 28 29 28 31 33 33 34 36 31 40 44 43 38 43 35 36 41 41 42 43 44 45 46 47 48 49 50 49 47 45 45 46
25 25 25 29 29 26 25 26 27 28 29 29 30 32 30 33 35 40 34 40 41 48 47 45 46 38 39 39 39 41 42 44 44 46 47 48 49 50 49 48 49 46 45
33 34 27 28 35 30 29 30 30 32 30 31 32 31 32 36 36 43 38 42 43 44 47 54 46 43 42 39 40 42 43 44 45 45 45 47 49 50 51 52 47 47 50
35 28 29 28 30 31 28 29 33 32 33 34 35 36 39 34 40 43 46 46 37 44 50 52 46 43 42 40 42 42 42 45 47 47 49 50 51 52 50 53 52 46 49
20 32 27 27 28 30 32 31 33 34 36 36 37 40 39 41 41 44 39 40 39 47 50 47 47 44 43 41 43 43 46 47 47 48 50 52 54 54 53 51 47 51 49
24 23 33 30 27 28 29 32 35 37 37 38 39 43 38 48 46 46 47 43 48 47 45 44 44 44 42 41 44 48 50 48 49 50 51 52 54 54 52 49 50 50 49
26 25 25 24 26 30 31 33 35 37 40 43 39 43 44 40 44 42 47 45 41 43 42 43 43 42 42 44 46 48 50 52 52 52 53 54 54 53 48 48 50 46 45
25 27 27 26 30 32 34 37 39 41 40 39 44 41 46 42 44 48 44 41 41 41 42 42 40 41 43 45 46 49 52 54 57 54 56 56 55 52 44 38 41 43 43
27 27 30 30 34 36 39 39 38 39 40 41 41 42 42 41 45 41 41 40 40 40 40 40 40 41 44 44 47 50 53 55 56 56 58 55 50 48 37 32 32 33 41
30 31 33 35 36 37 35 37 38 39 40 40 40 40 39 41 42 40 40 39 38 37 38 39 42 43 44 45 47 50 52 54 54 54 54 53 43 41 29 31 30 31 32
35 35 38 37 34 36 37 37 37 38 38 39 39 40 40 41 40 40 39 38 36 36 38 40 41 42 43 45 48 50 51 55 55 52 47 45 40 32 26 25 25 24 24
38 40 35 34 35 36 36 36 36 37 39 40 39 39 40 40 41 41 39 37 36 39 41 41 42 44 45 46 47 49 50 53 52 52 41 39 32 26 31 27 28 28 24

GFSMA_700_spd_060.txt.gz
Wind_Speed
31 27 24 22 16 11 7 8 9 9 9 9 8 7 6 5 5 4 1 2 4 6 9 9 8 9 12 13 13 11 10 12 11 10 10 13 15 16 17 18 20 21 23
31 30 26 21 14 10 9 10 9 8 9 9 9 8 7 5 4 3 1 3 5 7 11 12 10 10 11 13 14 14 13 14 14 13 12 14 16 19 21 23 24 25 26
32 26 20 22 16 14 13 10 8 6 5 7 10 10 9 7 6 5 5 6 8 11 13 15 14 13 14 17 16 14 15 17 18 18 18 18 21 23 25 26 27 28 30
30 27 27 24 19 16 14 10 8 8 7 7 9 9 7 8 8 8 9 10 11 13 16 18 18 17 17 19 17 16 18 19 20 22 22 23 25 26 28 28 28 30 33
32 28 28 26 17 20 16 12 10 9 8 8 8 8 8 10 10 10 12 14 15 17 19 20 20 20 20 19 18 19 19 20 22 24 24 24 27 28 30 31 33 36 39
36 32 28 31 21 24 17 16 12 11 10 10 9 10 9 11 12 13 16 17 19 20 21 22 23 23 24 21 21 21 22 25 26 24 26 28 30 30 32 35 39 41 43
38 34 29 29 25 22 19 22 17 14 12 13 12 10 10 13 13 15 17 18 20 22 22 24 24 27 27 25 23 24 26 28 30 29 29 30 32 34 36 39 43 44 45
45 40 35 35 27 21 18 18 21 18 17 17 17 16 16 17 16 20 20 21 23 24 24 31 25 26 27 23 23 28 31 31 30 29 31 32 35 37 39 42 44 46 47
33 34 36 25 28 27 28 24 21 20 21 22 23 23 22 24 21 22 25 27 25 27 25 27 29 31 26 26 24 30 31 30 30 31 35 36 37 38 40 42 44 45 46
36 34 30 29 31 32 28 28 25 26 27 26 27 27 27 27 29 27 29 30 27 26 26 26 31 30 27 29 31 34 28 28 29 34 37 39 40 39 40 42 42 43 45
34 34 28 33 35 33 30 29 29 29 29 30 31 30 32 31 31 28 32 28 30 30 28 28 29 32 28 31 34 39 32 31 35 36 37 38 40 43 44 46 46 45 46
31 32 33 35 35 33 32 30 30 31 31 32 31 35 39 36 24 25 31 32 28 29 31 30 29 34 33 31 34 39 35 36 39 41 40 41 41 45 44 32 33 39 48
29 31 33 33 31 33 33 31 35 33 31 36 23 22 23 23 27 31 31 35 37 34 31 29 32 34 36 39 41 42 38 38 40 41 41 42 42 44 43 34 36 39 44
23 26 29 32 34 34 33 31 30 25 19 22 23 27 31 31 33 28 35 35 36 36 36 33 31 36 39 38 40 40 40 39 39 40 40 41 43 45 46 45 41 42 41
23 27 30 33 34 34 33 34 29 26 25 25 27 30 33 33 35 32 37 35 35 41 39 37 37 38 46 39 44 40 41 39 39 40 41 42 44 45 46 48 50 50 44
22 28 31 33 36 32 32 32 32 30 31 28 30 32 33 34 33 38 34 37 44 44 46 45 43 40 38 41 41 41 39 40 40 40 41 42 44 46 48 50 51 49 47
28 29 33 34 36 35 35 37 36 32 33 33 32 34 37 36 38 37 37 42 39 45 50 48 47 36 41 43 39 38 38 39 39 41 43 45 47 47 48 50 53 55 55
29 32 35 39 35 37 42 37 38 34 33 33 36 39 40 37 38 41 46 39 41 48 47 47 44 42 45 43 41 40 38 39 41 43 46 47 48 48 51 53 54 56 56
35 46 38 34 39 39 36 36 35 31 33 38 37 40 38 40 45 45 42 41 50 51 51 49 47 47 46 42 43 43 43 42 43 44 44 46 47 49 51 53 54 55 55
27 33 22 25 32 39 39 37 36 32 33 36 39 40 41 42 46 44 47 42 50 46 43 47 50 46 44 43 45 45 44 43 44 40 42 44 45 49 51 54 54 53 49
26 30 33 31 27 29 33 37 34 33 35 37 39 40 40 40 50 39 44 50 50 47 44 52 46 44 43 43 44 44 46 48 46 44 46 46 48 50 50 53 53 48 43
27 29 28 29 28 29 30 32 33 35 38 40 38 40 41 42 44 47 53 49 47 45 54 47 43 43 42 43 42 44 47 48 50 48 49 49 50 52 53 52 50 44 41
31 29 31 30 30 32 33 35 36 39 41 41 39 40 43 47 47 51 48 49 42 51 50 45 43 43 41 39 44 46 45 50 50 50 52 55 52 56 54 50 45 41 37
30 32 33 33 32 34 38 37 39 41 43 37 42 47 46 47 46 47 48 46 47 50 47 44 43 40 39 44 45 47 49 50 51 52 51 56 53 56 52 46 40 33 33
32 33 35 35 36 39 39 39 42 38 39 43 44 45 45 46 47 48 47 49 49 46 44 43 41 40 45 43 45 48 49 50 54 53 50 54 53 53 46 40 31 27 23
35 37 38 39 39 38 42 43 39 39 40 41 43 44 46 48 49 49 49 46 44 43 42 39 39 43 42 42 44 47 48 50 52 54 50 51 51 46 43 34 24 22 25

GFSMA_700_spd_063.txt.gz
Wind_Speed
33 29 27 25 25 21 17 13 8 12 12 10 11 10 9 9 9 8 6 5 3 2 3 5 5 6 7 7 9 10 9 9 9 9 10 12 13 13 15 15 16 17 18
29 28 25 28 25 20 14 8 8 8 10 13 12 12 10 10 9 6 4 2 0 2 4 6 9 9 10 10 12 12 11 11 11 12 12 15 17 18 18 19 19 20 20
28 27 29 27 18 14 11 11 9 8 10 12 13 13 11 9 9 7 5 4 4 6 9 11 14 15 14 14 14 13 14 16 16 16 16 19 21 21 21 22 22 22 22
31 30 29 21 18 16 14 12 9 10 11 12 13 13 11 11 9 7 6 7 8 11 12 14 16 17 17 17 18 16 14 16 17 18 20 22 23 22 24 24 24 25 26
34 31 24 23 20 16 15 13 9 10 10 10 10 12 13 12 10 8 8 8 11 13 16 17 19 19 20 21 22 20 20 19 20 22 25 26 26 27 28 29 29 30 31
37 32 29 27 21 19 18 14 13 11 11 11 12 13 13 12 9 8 9 12 13 16 17 18 20 22 23 25 25 22 23 22 24 28 28 29 30 30 32 33 33 33 36
36 37 35 29 26 21 20 17 16 15 13 13 13 13 13 12 10 10 11 13 14 17 20 20 19 22 28 25 25 23 23 22 28 31 33 32 31 32 34 37 36 37 38
43 39 33 31 27 28 25 21 19 19 15 18 18 17 17 17 16 16 16 15 17 23 21 23 25 24 26 25 29 26 25 26 31 32 33 35 34 35 38 39 39 40 40
44 43 37 35 30 26 26 22 20 20 19 23 22 23 24 24 22 21 21 21 23 22 23 25 27 28 24 27 31 28 30 33 30 32 34 36 37 39 39 37 38 39 40
48 45 43 44 32 31 33 25 21 22 24 25 27 27 29 29 29 30 27 24 28 22 23 25 23 23 29 30 30 32 30 31 30 34 35 37 40 40 37 35 37 40 41
46 49 40 36 32 35 35 29 27 25 29 32 33 32 32 31 31 34 35 32 28 23 23 29 27 29 30 27 30 31 34 32 35 40 35 34 36 37 39 39 37 38 40
39 39 40 33 27 29 29 31 33 33 32 33 34 34 33 29 23 25 32 32 29 31 33 27 28 27 29 32 31 34 38 36 37 38 37 36 36 38 38 39 33 35 35
32 37 35 33 33 35 35 35 36 36 35 37 36 38 42 33 29 25 25 25 30 29 32 26 27 29 31 36 33 35 40 43 40 39 39 38 37 37 38 38 40 39 37
27 29 33 33 36 36 35 35 36 38 37 39 34 32 24 22 29 29 30 30 35 31 33 36 33 33 34 40 45 40 43 45 44 41 39 37 37 38 39 39 40 42 43
25 28 29 30 31 34 36 36 39 39 39 38 32 29 29 29 27 29 33 31 33 35 36 36 38 37 39 39 39 46 40 44 44 43 39 38 38 38 38 40 42 44 46
23 26 29 30 33 36 37 40 42 40 40 40 36 34 32 30 30 30 33 36 34 36 37 38 36 37 40 39 38 33 40 44 43 40 38 38 38 39 41 42 43 45 47
23 26 29 31 34 37 40 41 42 43 39 40 39 39 36 33 33 35 37 38 39 37 38 42 39 40 43 41 34 38 45 43 39 37 38 39 39 40 41 41 43 45 48
29 28 29 34 36 39 41 47 45 50 38 43 37 42 38 26 34 39 41 38 40 44 45 37 43 48 45 43 39 42 41 39 38 37 38 38 39 40 40 42 44 46 47
35 36 38 39 39 42 46 43 42 36 36 40 43 46 30 36 40 42 39 39 38 45 48 43 42 48 44 42 46 47 41 39 38 38 39 38 38 39 41 44 46 48 50
34 37 38 40 42 48 35 37 36 40 43 36 38 39 36 34 38 36 40 43 45 41 45 42 47 49 47 43 51 47 42 43 40 38 40 40 41 43 42 44 46 50 53
36 34 34 39 39 33 29 30 34 35 39 41 43 39 38 38 39 39 42 41 43 49 45 50 51 49 44 49 50 46 45 45 41 40 47 44 45 44 44 46 48 51 54
43 46 43 36 34 34 35 37 37 38 36 37 37 39 40 41 42 41 44 43 40 46 53 53 47 51 47 51 46 46 46 45 47 53 50 49 44 45 46 48 50 52 53
31 34 37 36 35 32 33 37 35 36 34 36 37 40 42 42 43 39 39 44 49 55 55 48 49 49 51 47 46 46 45 49 55 51 52 51 45 47 49 50 50 52 51
30 31 33 35 37 36 36 37 37 38 38 37 40 45 43 42 38 42 49 51 52 51 50 49 50 52 48 45 46 44 51 59 56 50 48 50 47 48 50 49 48 48 45
31 33 34 35 37 36 36 38 38 40 39 41 44 45 40 40 44 50 53 52 49 50 51 50 51 48 45 45 49 55 57 55 55 49 47 49 48 49 51 49 47 42 39
34 34 35 36 36 37 39 40 41 42 42 44 46 40 42 46 50 51 50 50 52 52 52 51 49 49 49 53 54 56 54 56 51 49 45 48 48 48 52 48 44 37 31

GFSMA_700_spd_069.txt.gz
Wind_Speed
37 34 32 31 28 25 23 21 20 19 18 16 14 15 15 15 14 14 13 11 9 7 6 4 2 2 3 4 5 6 7 8 8 9 10 10 11 12 14 15 16 16 15
41 36 34 32 28 26 24 22 20 18 17 16 14 13 14 15 15 14 13 12 10 8 7 4 3 4 4 5 7 8 8 9 10 10 11 12 13 14 16 17 17 17 17
43 37 34 33 30 28 27 24 19 17 17 16 16 15 15 15 15 15 13 13 11 10 9 8 7 8 8 8 9 10 11 11 13 14 14 15 15 16 19 20 20 20 22
37 36 33 32 29 29 26 22 20 19 16 15 16 16 17 16 15 15 15 14 13 12 12 11 12 11 12 12 13 13 12 14 14 16 16 17 17 19 21 20 21 22 24
36 35 31 30 30 30 27 23 20 17 15 15 15 17 18 17 16 16 15 15 14 15 13 13 14 15 15 14 14 13 15 16 16 18 18 19 20 22 20 19 21 25 26
38 39 34 30 30 30 26 22 19 16 15 15 14 15 16 17 17 16 17 16 16 15 15 15 16 18 18 18 17 17 17 20 20 20 20 22 23 24 21 21 24 26 28
36 38 43 40 33 29 26 20 17 16 18 17 16 14 13 13 15 16 17 16 16 17 16 19 20 21 22 23 24 21 22 22 22 26 27 25 26 25 25 27 29 29 31
44 46 43 39 42 32 26 25 22 21 20 17 14 13 14 14 13 15 17 18 18 20 21 24 24 24 28 26 23 23 23 23 27 30 26 25 29 32 31 30 31 30 33
46 43 45 42 35 33 29 28 28 25 23 21 18 17 15 12 13 17 18 21 23 25 26 28 29 31 30 35 27 26 24 28 25 27 26 26 27 32 36 35 34 35 37
49 51 43 42 40 38 37 34 32 29 25 23 25 23 19 17 11 12 22 24 27 29 29 33 33 35 32 31 22 29 28 28 30 29 29 29 32 33 34 37 39 40 41
45 44 45 50 47 44 41 36 34 34 31 27 29 25 25 23 22 22 24 29 35 34 32 32 33 34 40 33 31 28 31 32 29 26 29 34 37 37 36 38 41 40 40
44 50 51 50 48 44 45 39 40 40 32 34 30 29 28 26 24 26 28 29 32 36 40 34 26 23 25 27 28 28 30 29 33 33 31 35 37 41 38 40 41 41 43
45 52 52 52 50 46 41 44 43 41 31 35 34 33 31 33 30 30 33 35 41 44 38 49 32 31 33 30 29 28 27 30 31 31 32 35 38 39 39 39 39 41 43
36 47 49 54 52 49 48 42 47 39 36 43 42 39 36 38 36 36 36 39 39 30 36 23 26 33 32 33 31 27 31 33 36 36 35 37 39 41 39 39 42 43 43
29 39 42 44 45 41 41 45 44 43 42 42 41 41 41 41 40 41 41 41 41 40 37 34 33 32 32 38 33 31 33 36 38 34 37 41 44 41 38 42 43 43 43
32 33 32 34 34 38 40 38 40 42 41 41 44 42 43 43 43 44 44 43 42 45 44 40 36 36 34 38 37 34 38 42 40 35 37 39 41 41 41 43 42 42 43
21 24 27 29 34 36 37 40 41 39 39 42 44 46 45 43 47 48 48 47 46 41 43 48 44 44 36 37 38 41 40 37 36 41 42 45 47 44 44 43 42 43 44
18 20 22 23 25 27 32 36 37 38 38 39 41 45 47 45 50 51 55 51 52 55 60 51 38 42 46 36 42 45 42 45 45 46 46 46 47 45 47 45 44 44 44
23 24 24 25 26 27 31 34 36 37 38 40 43 46 46 46 52 49 54 51 51 53 46 32 37 36 45 38 47 43 47 43 47 46 52 52 47 47 47 49 45 44 46
28 28 29 29 29 28 29 36 37 39 41 44 44 46 48 49 52 51 48 48 43 38 46 38 43 45 41 50 42 48 48 45 45 52 54 53 51 49 48 47 45 46 50
33 33 34 36 36 39 37 38 40 42 45 45 49 54 51 51 52 47 51 44 43 48 50 41 41 45 48 46 51 45 46 48 49 53 55 52 51 50 47 44 46 51 53
32 34 36 37 40 42 42 43 44 46 46 49 52 44 50 50 54 53 50 49 49 47 46 50 44 54 46 51 50 49 50 49 52 57 56 53 49 49 45 45 53 51 49
26 27 30 35 37 41 43 45 46 49 51 51 52 53 57 47 48 55 46 51 50 47 48 47 51 48 53 52 54 50 45 48 55 53 54 56 51 48 47 53 52 49 45
30 29 29 30 32 36 39 41 44 50 53 56 59 58 56 54 52 49 48 50 54 49 53 61 58 57 63 51 45 47 47 54 56 56 55 54 49 53 52 52 50 45 40
37 37 36 35 35 34 36 38 40 42 44 46 48 49 49 50 52 52 49 52 54 56 58 58 56 49 43 42 46 48 56 57 56 51 47 51 55 56 54 51 46 42 39
44 45 45 42 40 37 38 38 40 43 44 45 47 49 49 49 50 49 48 51 55 51 56 56 48 41 45 46 49 54 55 51 50 53 51 53 53 50 52 48 43 38 38

GFSMA_700_spd_072.txt.gz
Wind_Speed
25 28 32 28 27 26 23 22 20 19 19 17 15 17 15 13 14 13 13 12 11 10 9 7 5 3 4 3 4 5 6 6 6 6 7 8 9 10 11 12 14 14 14
20 26 32 25 26 25 23 23 20 19 18 16 17 16 17 12 15 15 14 13 12 10 8 6 5 5 4 4 6 6 7 8 9 9 10 10 10 10 11 13 16 16 15
26 26 34 31 28 26 26 25 21 20 18 17 17 17 16 15 14 15 15 14 13 11 10 8 8 7 6 6 8 8 9 10 11 12 13 13 13 14 14 16 18 17 17
30 30 34 36 31 30 28 26 23 22 20 18 18 16 15 16 14 14 15 15 14 13 12 11 11 10 9 10 10 11 11 13 13 13 14 15 17 18 17 17 18 18 17
30 37 39 35 34 30 31 28 26 23 20 18 17 16 16 15 15 15 15 17 16 14 15 15 14 13 13 13 13 13 12 15 14 17 18 17 18 20 21 21 20 19 19
31 36 37 33 32 37 29 28 26 21 18 17 15 16 17 16 16 17 16 17 16 17 16 15 16 15 16 15 16 17 20 20 18 18 20 20 22 24 23 22 22 23 23
37 47 33 36 35 34 30 26 25 23 18 18 17 14 15 16 17 18 17 17 17 17 17 17 16 18 18 19 19 19 21 23 20 20 20 22 21 20 19 22 23 26 27
35 40 39 37 34 31 30 30 29 23 18 16 15 14 16 17 16 15 16 16 17 17 18 20 21 21 22 24 25 26 25 23 25 27 25 24 24 24 23 26 27 29 29
33 47 42 37 40 35 33 35 37 31 21 20 20 23 23 16 15 18 16 16 19 21 22 23 24 27 29 31 30 32 31 27 28 25 25 27 26 26 27 29 30 30 29
36 49 51 45 47 38 41 39 38 28 26 26 26 25 21 21 20 18 19 16 19 21 23 26 27 27 31 34 34 33 32 34 28 27 28 27 26 28 30 30 33 34 33
26 42 45 42 41 42 44 42 38 35 31 29 31 31 28 24 24 23 20 21 24 25 26 27 30 32 33 38 38 34 31 27 26 29 29 28 31 33 30 32 34 35 34
34 38 37 42 45 48 44 44 42 29 31 33 30 28 29 27 27 27 25 25 27 28 28 31 34 37 38 42 31 25 25 27 27 28 28 28 31 29 28 30 33 36 37
35 34 39 44 49 50 48 45 40 38 42 40 38 33 29 31 30 30 30 29 30 32 32 35 36 33 35 41 35 33 30 27 29 29 30 31 34 32 31 34 37 37 37
25 23 35 40 48 52 48 49 50 48 46 45 41 34 30 31 35 35 35 35 36 37 38 37 33 37 36 30 29 30 33 30 31 32 31 32 33 33 34 37 37 38 38
25 33 29 36 47 46 48 50 47 47 49 42 36 37 35 37 42 43 41 39 40 43 44 41 42 37 40 41 36 36 34 33 32 35 35 36 31 31 33 36 39 40 40
24 30 32 35 40 43 50 52 49 48 47 47 47 41 43 44 42 41 42 41 43 46 51 47 47 48 47 44 41 38 38 39 34 36 38 36 33 33 37 41 42 42 40
25 29 30 30 35 39 40 46 49 48 44 41 43 45 46 42 41 44 44 44 43 48 53 56 56 51 44 47 46 53 46 42 35 39 40 41 39 38 41 40 44 42 42
16 19 24 28 30 30 34 38 41 42 44 46 45 46 41 41 44 45 43 44 47 49 57 50 50 47 52 49 59 51 47 45 37 45 42 45 46 42 40 43 43 42 42
16 18 20 19 21 23 27 30 32 34 37 37 38 40 40 42 44 44 43 43 47 51 49 55 52 52 42 36 37 40 37 48 51 47 54 45 42 47 44 48 46 43 43
22 22 22 24 25 26 27 28 30 30 32 34 36 38 39 41 42 43 43 44 47 51 52 49 52 51 49 50 41 42 47 45 48 54 51 43 44 49 46 47 47 45 45
26 26 27 28 28 30 31 32 33 33 33 34 36 39 41 43 44 48 45 46 51 55 54 53 56 54 55 42 50 47 48 50 54 61 56 51 48 47 45 46 47 48 45
30 30 30 30 31 32 32 33 36 38 38 40 42 43 45 47 47 47 50 51 47 57 50 50 49 54 52 46 55 58 57 55 56 62 61 49 44 44 51 51 50 49 48
30 30 29 30 29 30 30 34 35 39 41 43 45 47 50 52 53 52 53 53 54 57 58 48 50 51 55 54 60 51 56 56 63 55 48 45 43 51 49 51 49 48 51
31 29 29 30 31 29 29 28 31 37 40 42 45 49 51 52 52 52 53 53 53 54 58 56 58 56 55 56 51 58 58 54 47 44 47 47 52 51 51 50 49 51 48
38 37 37 38 39 36 37 36 36 35 37 39 40 42 45 46 47 45 44 49 51 54 55 55 55 54 58 60 58 54 45 43 44 48 45 53 50 49 50 53 51 50 47
46 47 47 48 46 46 45 43 41 41 41 42 42 43 43 44 45 47 48 51 52 52 55 58 59 56 58 48 40 37 40 44 43 46 48 49 50 51 54 52 50 45 43

GFSMA_700_spd_075.txt.gz
Wind_Speed
30 28 24 25 27 27 26 25 25 24 22 19 18 16 13 16 16 15 14 13 13 13 13 11 9 8 6 4 3 4 4 4 4 5 7 8 8 9 9 9 10 12 14
28 26 16 31 28 28 28 27 25 24 22 20 19 16 13 17 17 15 14 13 13 13 11 10 8 7 5 4 4 4 6 7 6 8 10 11 11 12 11 11 12 14 14
24 22 21 32 30 30 30 29 26 23 22 22 21 17 14 15 15 15 15 14 13 12 11 10 9 8 6 5 6 6 8 8 9 11 12 13 14 15 15 15 15 15 15
21 25 24 33 30 31 30 30 26 24 22 22 20 17 15 13 14 13 14 14 15 13 12 11 10 9 7 7 9 9 10 10 12 13 13 13 15 17 17 19 19 17 17
24 25 24 35 40 32 31 26 26 25 25 23 20 17 16 12 14 15 15 15 15 14 14 13 12 12 11 11 11 10 10 10 16 16 17 17 18 20 19 21 20 20 19
29 26 29 36 39 36 32 32 29 28 25 23 21 19 17 14 15 15 15 16 17 17 16 15 15 14 13 13 12 12 12 14 17 19 18 18 18 20 23 20 21 20 20
23 27 30 35 42 37 34 32 30 29 27 25 21 20 18 17 17 17 18 18 18 17 17 17 16 15 14 16 16 16 18 19 20 21 20 24 23 20 20 18 18 18 21
26 32 31 37 41 42 42 34 32 31 28 21 17 15 16 17 18 20 19 19 17 18 18 17 17 16 17 19 20 22 24 25 25 26 29 28 23 25 25 24 23 24 23
29 32 33 36 40 33 42 33 31 30 26 23 32 25 27 22 18 18 18 19 19 19 18 20 19 18 21 23 26 26 28 31 31 27 26 25 27 27 27 26 27 28 27
35 31 36 44 38 37 39 25 30 30 32 36 32 27 22 21 24 22 21 23 23 21 22 22 22 21 22 25 28 30 30 33 34 31 29 29 28 28 27 30 31 31 29
28 26 27 43 40 39 35 34 34 35 36 37 33 30 29 27 25 28 25 22 25 20 20 22 22 21 21 27 33 35 34 33 31 27 24 26 26 28 27 27 30 27 27
29 28 29 43 47 47 44 38 37 37 39 37 37 37 31 29 28 29 25 23 23 27 26 25 24 24 25 28 29 28 31 34 28 26 26 26 26 28 29 32 32 31 31
25 26 27 32 45 47 44 41 40 40 40 43 44 35 28 25 30 34 33 31 29 29 29 31 30 29 28 31 31 30 33 37 35 33 30 30 30 29 31 32 34 32 32
23 21 24 22 31 39 41 44 43 43 48 43 40 34 31 32 32 33 32 30 32 35 37 35 35 36 35 35 36 35 37 34 34 34 33 34 36 34 33 34 34 33 33
20 20 24 20 23 37 44 45 45 48 47 47 40 35 38 42 37 34 33 33 37 43 44 40 40 38 39 41 42 43 45 44 47 42 39 42 40 38 37 37 35 34 35
18 23 24 34 27 26 35 45 46 49 46 51 49 46 47 45 41 37 38 39 42 45 48 42 42 42 43 44 46 43 46 45 40 45 45 47 44 39 41 40 39 40 38
14 18 24 24 25 33 38 46 50 48 47 50 53 50 47 48 47 45 41 40 43 43 49 45 44 45 49 50 48 46 44 42 46 48 52 56 53 44 43 42 44 43 40
9 12 16 19 24 27 29 36 37 44 44 47 49 51 47 47 47 43 41 42 44 42 46 48 44 51 50 45 48 48 49 37 41 40 39 39 44 39 50 46 51 46 39
9 11 12 13 16 19 25 26 30 35 35 36 39 42 40 43 42 39 38 39 39 40 43 47 51 50 53 52 49 48 46 45 44 42 39 42 49 51 51 57 53 47 42
16 15 16 17 18 20 21 23 24 26 26 26 29 34 34 36 35 34 37 38 41 43 47 50 47 53 51 49 53 51 50 49 50 43 43 45 51 58 55 64 63 45 51
23 23 23 24 24 25 25 25 26 28 31 31 32 32 33 35 37 37 39 42 45 47 46 49 55 49 58 56 49 44 46 47 46 49 50 54 61 60 68 68 66 51 40
28 29 29 28 28 29 28 28 30 32 34 35 36 37 39 40 41 41 43 45 47 49 49 51 52 56 56 59 56 57 47 49 54 50 55 67 55 60 68 63 51 46 47
31 32 34 34 33 31 30 32 34 37 38 38 39 40 41 41 41 43 44 47 50 53 53 54 56 57 57 56 59 57 52 56 55 55 52 54 60 60 59 53 52 49 48
32 32 32 35 37 33 36 36 36 39 40 40 42 42 44 43 44 46 48 50 53 55 54 53 48 50 58 60 63 61 58 59 59 54 53 51 51 51 52 49 47 48 52
36 34 32 38 41 40 43 40 42 44 46 47 46 45 46 46 45 47 50 53 53 53 51 47 48 52 54 60 61 55 56 59 52 47 42 41 42 43 43 44 47 52 51
34 35 38 42 45 44 46 47 48 50 51 51 52 53 53 52 53 53 51 48 45 48 52 54 54 59 56 56 59 59 50 49 36 34 35 37 39 41 45 49 48 47 47

GFSMA_700_spd_078.txt.gz
Wind_Speed
35 32 31 34 33 31 33 30 28 26 24 19 18 18 18 17 17 17 16 15 14 14 13 12 11 9 7 6 5 3 4 3 3 4 5 5 7 8 9 10 10 9 10
35 33 27 29 32 32 32 30 30 28 24 19 19 19 19 18 17 17 15 14 14 14 13 12 10 9 8 6 4 3 3 5 5 6 7 8 9 11 13 13 13 13 13
37 30 26 24 29 31 32 31 31 30 25 22 21 19 18 16 17 16 16 15 15 14 12 11 11 10 8 5 4 4 4 6 9 9 9 10 13 14 16 16 17 16 15
34 31 28 20 28 33 34 35 32 28 26 23 21 19 17 14 16 16 17 16 16 14 13 12 12 11 8 7 6 6 7 8 10 9 12 15 15 16 18 18 19 18 19
36 31 26 18 33 35 37 35 32 29 27 26 22 19 17 15 15 16 16 17 16 15 15 14 13 12 10 9 8 8 8 9 10 13 14 17 19 20 20 20 21 23 23
24 23 23 28 32 37 37 34 32 30 28 27 23 22 19 17 16 16 18 18 18 18 16 15 15 13 13 12 11 9 10 10 13 15 17 19 18 20 19 20 20 21 21
29 21 29 29 30 42 39 34 34 31 29 28 27 26 22 18 19 20 21 20 20 19 18 18 17 16 16 15 14 13 13 16 16 19 20 22 25 25 23 21 21 21 22
34 29 25 28 39 42 40 36 35 33 31 29 30 26 24 22 20 22 22 22 21 20 21 20 19 18 18 17 16 17 19 21 23 24 24 24 25 26 24 22 24 22 24
32 28 27 29 35 43 43 40 37 35 32 33 30 27 23 21 20 25 24 23 22 23 22 22 21 20 20 17 18 20 21 23 25 25 27 30 30 28 28 27 26 26 26
27 31 25 31 39 41 40 40 37 32 30 31 30 27 26 27 30 22 22 21 22 23 23 22 22 21 20 19 20 20 23 26 28 26 28 30 32 31 29 29 29 28 27
28 26 26 31 37 39 44 45 44 38 31 31 31 31 26 33 23 27 26 22 25 22 23 21 20 19 20 20 18 21 24 25 26 26 29 29 28 30 30 29 30 31 31
24 27 32 27 30 37 41 42 40 31 30 32 32 31 32 34 27 30 27 24 27 26 27 26 25 24 23 22 22 25 26 27 29 30 31 31 30 31 33 32 32 32 32
30 23 34 27 34 40 37 30 35 27 31 35 37 36 34 35 34 36 33 30 30 30 30 30 30 28 27 28 27 29 30 31 32 34 35 36 38 36 36 37 36 36 36
23 24 28 27 25 35 41 37 35 32 35 38 40 41 41 42 40 35 29 30 35 35 33 36 35 34 33 33 32 33 34 36 37 39 41 42 41 41 40 41 41 41 40
23 28 22 24 32 30 39 41 41 42 41 41 44 43 46 46 43 37 32 32 34 36 37 36 38 36 37 39 38 36 38 38 37 40 42 43 49 51 51 44 48 49 45
17 21 26 25 30 29 37 45 47 48 48 52 48 49 48 45 37 37 36 38 37 37 44 40 42 38 37 38 38 39 41 42 45 44 45 44 44 44 49 51 52 56 47
16 14 24 28 29 29 22 28 32 40 48 48 50 51 50 47 44 44 44 37 40 44 49 46 46 42 40 39 41 42 44 46 47 44 43 45 43 45 48 50 53 51 56
12 14 20 22 26 25 27 32 36 33 34 39 42 48 45 45 44 43 45 47 48 44 51 52 46 43 43 42 43 48 51 49 52 48 47 44 46 43 42 41 46 49 56
10 13 16 19 21 22 25 30 32 35 39 39 40 40 41 47 45 47 51 53 49 51 53 54 50 46 46 45 44 46 46 48 43 39 41 50 48 49 48 45 47 54 57
13 13 14 16 17 19 23 26 29 30 32 34 38 40 39 43 41 43 46 46 46 49 48 50 49 47 46 50 49 47 50 48 49 47 49 44 44 42 41 48 49 54 60
19 19 20 21 21 22 23 24 25 28 31 34 35 34 34 36 37 37 42 40 42 46 46 48 51 51 52 53 53 49 54 49 54 49 49 46 40 41 51 51 57 61 69
25 25 26 27 27 26 27 28 30 32 33 34 35 37 37 38 39 40 42 43 45 48 50 53 54 56 57 56 57 53 52 55 53 50 57 51 54 52 54 53 57 55 64
27 29 30 32 32 31 32 32 34 37 39 40 40 41 42 42 43 45 46 47 49 52 55 56 59 58 58 56 54 62 56 53 52 58 60 56 50 49 55 51 54 56 61
22 22 26 31 33 34 36 38 40 42 43 44 45 46 47 46 47 47 48 50 52 56 58 58 58 58 57 58 62 65 65 64 75 57 62 53 52 53 53 53 51 53 53
30 27 26 27 27 29 34 37 39 43 46 46 46 49 51 51 50 51 52 52 54 56 58 59 59 60 65 70 69 60 71 64 68 63 57 52 54 48 47 48 46 47 48
34 33 31 34 43 40 35 34 34 36 40 44 48 50 53 57 57 56 56 56 58 59 62 64 67 71 69 69 63 65 75 69 61 56 47 44 43 44 42 41 41 43 45

GFSMA_700_spd_081.txt.gz
Wind_Speed
23 43 39 35 35 35 31 29 29 25 24 23 21 19 18 18 19 17 16 16 15 14 13 12 11 11 10 7 6 5 4 4 3 4 4 6 6 7 9 9 10 11 11
27 38 39 36 33 33 32 32 27 27 26 23 20 20 20 19 18 18 16 16 14 14 13 13 12 11 10 7 6 5 4 4 4 5 6 8 8 10 11 12 12 14 15
42 41 37 34 34 33 31 30 29 28 27 24 22 21 20 17 18 18 17 16 15 15 15 14 14 12 10 7 6 5 5 5 4 6 7 8 9 11 12 13 14 16 17
39 39 35 33 34 34 35 36 33 31 28 25 24 22 19 17 18 18 18 17 15 15 15 14 14 13 10 8 7 7 8 6 7 6 8 9 11 13 15 15 16 18 19
47 39 32 31 28 31 36 36 34 31 27 26 24 21 18 17 17 18 18 17 17 17 16 16 15 14 12 11 9 10 10 8 8 9 9 11 13 14 15 14 16 18 20
42 38 33 28 24 27 34 36 35 31 28 26 25 23 20 19 18 19 19 18 17 17 18 18 17 15 14 13 12 12 12 10 10 11 13 14 16 18 18 19 21 21 20
40 36 34 27 22 28 34 35 34 32 32 31 27 27 25 23 21 22 23 21 19 19 20 20 19 18 17 16 15 15 14 13 13 15 16 19 20 21 21 20 22 22 22
41 40 35 28 25 30 33 34 36 36 35 33 31 30 28 26 26 25 25 22 21 22 22 22 22 21 20 19 18 17 16 17 18 19 19 20 21 23 25 25 25 24 26
40 36 25 31 33 32 27 37 38 37 36 35 32 33 30 29 27 25 23 20 23 25 23 24 24 23 22 21 19 19 18 19 20 21 23 25 25 25 25 27 28 30 31
39 33 25 29 28 28 37 38 39 36 36 35 34 33 28 25 28 28 27 31 29 26 27 26 26 24 23 22 21 21 20 20 20 22 23 23 28 28 28 29 29 31 31
36 41 32 26 27 34 38 40 41 40 40 36 34 33 29 28 34 29 25 30 22 25 25 24 24 24 24 23 23 22 21 21 21 22 23 24 26 30 30 33 31 32 33
36 31 26 30 32 33 39 42 40 41 41 37 32 30 31 34 35 29 25 26 24 27 26 24 25 27 26 26 26 24 23 23 25 26 27 27 29 31 33 33 36 35 37
31 30 31 31 30 31 36 40 39 41 44 38 33 32 33 34 33 32 30 28 30 29 30 29 28 28 28 29 29 28 28 29 30 31 32 32 35 37 39 37 38 42 43
31 33 21 25 26 33 31 35 41 43 43 38 39 36 36 38 36 34 36 32 32 37 38 36 33 31 33 34 34 34 35 36 37 36 36 36 38 35 40 42 41 47 49
23 31 24 30 29 23 23 35 40 38 42 40 40 36 38 38 40 40 37 35 43 40 36 31 36 35 37 36 37 38 38 39 42 42 41 42 42 45 46 45 46 46 53
19 23 26 25 24 29 25 23 33 38 34 36 33 35 38 41 42 44 44 42 50 45 48 32 33 31 31 36 39 41 42 42 42 43 45 46 45 46 45 48 46 44 46
17 22 27 24 24 23 26 31 28 33 37 39 38 39 41 43 47 50 49 49 42 39 42 42 39 37 40 38 40 41 44 46 45 45 45 46 47 50 50 51 52 48 46
16 16 21 27 31 28 30 28 30 25 33 40 39 46 51 50 52 52 51 51 46 48 48 48 42 45 49 48 49 47 46 46 46 44 37 41 45 49 48 43 49 53 48
12 15 18 20 22 31 34 34 34 36 39 39 39 38 37 43 46 46 47 48 48 48 48 52 53 50 51 50 48 48 47 48 49 47 48 46 48 50 47 50 49 50 49
10 11 13 14 16 19 22 26 30 32 35 34 33 35 39 43 43 44 45 45 45 49 51 56 58 54 51 48 51 49 52 50 51 48 51 50 52 50 51 53 50 49 48
15 17 18 19 20 21 22 24 27 29 32 33 32 33 36 37 35 37 43 42 46 49 50 52 55 54 51 50 53 51 54 53 55 55 55 55 55 55 56 54 52 48 53
21 22 23 24 25 26 27 29 31 33 34 34 34 35 36 39 38 41 43 44 47 50 51 53 55 58 57 56 56 59 59 59 62 60 58 59 59 56 55 59 57 52 56
21 24 26 28 29 30 31 32 33 36 39 40 40 41 41 42 43 45 45 48 50 52 54 55 59 61 61 60 61 62 64 62 60 60 58 62 61 64 62 65 62 52 55
21 21 20 19 22 23 27 31 35 38 41 42 43 44 47 47 48 48 50 53 53 55 57 58 61 64 65 66 64 63 61 62 64 66 71 76 71 75 69 70 58 55 53
27 27 25 26 27 27 29 30 28 30 35 38 40 40 43 48 49 52 52 53 54 57 60 62 64 67 68 68 68 65 64 63 70 73 79 80 72 77 62 53 51 54 53
32 36 37 38 35 36 38 37 35 34 35 40 44 46 47 46 45 45 49 49 52 56 59 59 65 68 71 70 68 69 71 79 79 74 72 66 58 50 46 47 48 48 45

GFSMA_700_spd_084.txt.gz
Wind_Speed
25 31 24 31 38 31 29 28 27 25 24 24 22 20 17 18 17 16 16 15 14 14 14 13 12 13 12 9 8 7 6 5 5 4 4 3 4 4 5 5 7 8 9
27 32 30 38 40 35 33 28 26 26 25 23 20 20 20 18 17 17 16 17 16 16 15 14 13 13 12 10 9 8 7 6 5 4 3 4 5 5 7 7 7 8 10
26 22 30 43 39 37 35 34 30 33 28 27 23 20 20 19 17 16 16 17 16 16 16 16 15 15 13 11 10 9 8 7 6 5 4 3 6 6 7 8 9 10 11
22 15 38 37 38 38 35 32 31 30 29 26 24 21 19 19 17 17 19 19 18 18 17 18 17 16 14 12 11 10 10 8 6 5 4 5 5 7 10 10 10 11 12
32 28 38 40 38 36 34 31 29 29 30 27 25 23 20 18 17 19 20 20 19 18 18 18 17 16 15 14 13 12 10 9 7 6 6 7 7 9 10 10 12 15 17
31 29 38 43 38 37 37 35 33 29 29 26 26 25 21 20 18 20 21 20 19 19 19 19 18 17 17 16 16 14 13 12 10 8 9 11 12 14 15 15 16 18 19
30 32 46 42 39 36 34 35 33 33 33 31 29 30 25 24 22 23 23 21 21 20 20 20 19 18 19 19 18 17 16 15 13 13 14 14 18 19 18 19 20 20 22
38 46 41 38 36 35 36 32 32 33 35 34 34 30 28 26 25 23 25 24 23 23 21 21 21 20 21 21 20 20 20 18 17 17 17 18 21 21 21 22 23 23 23
43 43 39 37 35 32 35 34 32 35 32 32 31 31 30 28 24 26 24 21 26 23 21 18 22 23 23 23 23 23 21 20 20 20 20 21 20 21 24 25 27 27 24
47 43 40 38 31 34 35 35 32 34 30 33 33 31 29 28 25 28 26 26 24 21 22 35 26 25 25 25 25 24 24 23 23 22 20 20 20 20 19 22 23 25 25
39 41 44 42 36 38 36 36 38 39 33 34 33 30 32 29 33 28 27 23 26 30 35 37 26 30 29 27 27 27 26 25 25 23 21 22 23 23 24 25 26 27 28
42 43 40 28 28 32 35 39 36 30 33 32 32 31 32 30 30 28 25 28 31 32 33 22 28 28 27 28 27 28 29 28 28 26 25 26 27 28 29 31 32 32 32
40 42 35 36 31 30 34 40 35 33 37 41 39 37 35 32 32 31 31 31 30 32 29 26 25 25 26 27 28 28 28 29 30 30 31 32 33 34 35 35 35 35 35
32 26 27 32 25 24 26 32 35 39 40 40 38 39 39 35 33 32 32 34 36 37 39 25 30 31 32 34 33 31 35 33 35 37 38 39 40 40 41 40 40 40 42
24 25 27 19 24 25 24 29 28 30 38 35 41 41 46 36 34 36 37 39 36 41 42 34 34 33 37 41 38 37 39 36 43 42 44 43 43 44 45 45 44 46 46
24 27 27 25 24 21 20 31 26 33 33 36 36 40 40 43 38 41 46 41 45 44 44 41 41 38 45 33 32 33 32 34 41 39 45 45 46 46 47 47 47 47 48
17 21 25 27 24 27 26 21 21 24 22 32 34 33 41 40 37 38 36 42 43 43 48 48 45 40 34 41 35 35 35 42 42 44 43 45 48 48 48 49 47 48 51
13 15 18 25 28 27 26 24 30 34 29 30 33 34 32 35 36 38 39 41 42 46 52 57 48 48 40 38 40 42 44 48 50 46 45 45 47 48 50 49 48 53 50
14 14 15 19 24 25 28 29 30 29 30 27 26 27 29 34 39 41 43 46 48 51 51 52 50 47 47 46 46 49 48 50 50 47 47 47 48 48 51 52 54 55 55
10 12 13 15 18 22 25 28 32 32 33 33 33 35 37 39 41 42 44 46 47 51 52 55 56 53 51 50 53 53 51 49 49 48 47 49 50 49 52 53 56 58 58
12 12 13 14 16 18 20 23 27 31 34 36 35 35 36 37 37 38 40 41 44 48 52 55 57 56 54 52 51 49 54 50 52 53 54 55 53 54 54 55 58 59 57
15 16 17 18 20 21 23 25 27 30 32 33 34 34 36 38 40 42 44 45 46 50 50 50 53 56 55 54 54 56 58 58 60 56 61 60 59 59 58 59 59 60 61
19 20 22 24 25 26 28 28 30 32 34 35 36 37 39 41 41 42 44 46 47 48 51 53 57 57 59 57 58 59 59 60 63 64 65 66 66 65 68 68 69 75 72
16 16 18 19 20 26 28 29 31 32 34 35 37 39 42 43 44 46 48 50 50 52 56 56 55 58 61 63 61 61 61 61 63 64 67 71 68 75 74 80 75 75 81
26 27 26 27 26 28 28 26 23 23 26 26 28 33 33 36 39 37 40 42 44 49 51 50 55 57 59 62 61 59 59 61 67 71 71 72 77 77 77 74 71 71 65
26 28 32 37 41 42 40 42 42 42 41 38 41 45 48 45 52 51 48 54 52 55 61 62 61 65 62 74 74 68 71 68 70 80 77 72 76 67 71 71 55 47 45